Wetterdaten: Dienstag, 05.04.2022
Datum Zeit Temp. Aussen Temp. o. S. Temp +5cm Feuchte Auss Luftdruck Regen Sonnenschein Regendauer Solar Windben Empfang
05.04.2022 00:00 7,2 C 6,7 C 3,9 C 97 % 1005,5 hPa 0,0 l/m 0 min 0 min 0 W/m 16,1 km/h (3 Bft) 97,87 %
05.04.2022 00:02 7,2 C 6,7 C 3,9 C 97 % 1005,5 hPa 0,0 l/m 0 min 0 min 0 W/m 35,4 km/h (5 Bft) 97,83 %
05.04.2022 00:04 7,2 C 6,7 C 3,9 C 97 % 1005,5 hPa 0,0 l/m 0 min 0 min 0 W/m 35,4 km/h (5 Bft) 100,00 %
05.04.2022 00:08 7,2 C 6,7 C 3,9 C 97 % 1005,6 hPa 0,0 l/m 0 min 0 min 0 W/m 25,7 km/h (4 Bft) 96,77 %
05.04.2022 00:10 7,2 C 6,7 C 3,9 C 97 % 1005,4 hPa 0,0 l/m 0 min 0 min 0 W/m 25,7 km/h (4 Bft) 97,87 %
05.04.2022 00:12 7,2 C 6,7 C 3,9 C 97 % 1005,5 hPa 0,0 l/m 0 min 0 min 0 W/m 22,5 km/h (4 Bft) 95,74 %
05.04.2022 00:14 7,2 C 6,7 C 3,9 C 97 % 1005,5 hPa 0,0 l/m 0 min 0 min 0 W/m 19,3 km/h (3 Bft) 93,62 %
05.04.2022 00:16 7,2 C 6,7 C 3,9 C 97 % 1005,6 hPa 0,0 l/m 0 min 0 min 0 W/m 12,9 km/h (3 Bft) 93,48 %
05.04.2022 00:18 7,3 C 6,7 C 3,9 C 97 % 1005,8 hPa 0,0 l/m 0 min 0 min 0 W/m 29,0 km/h (5 Bft) 93,62 %
05.04.2022 00:20 7,3 C 6,7 C 3,9 C 97 % 1005,5 hPa 0,0 l/m 0 min 0 min 0 W/m 25,7 km/h (4 Bft) 95,74 %
05.04.2022 00:22 7,3 C 6,7 C 3,9 C 97 % 1005,5 hPa 0,0 l/m 0 min 2 min 0 W/m 22,5 km/h (4 Bft) 93,62 %
05.04.2022 00:24 7,3 C 6,7 C 3,9 C 97 % 1005,5 hPa 0,2 l/m 0 min 0 min 0 W/m 25,7 km/h (4 Bft) 95,74 %
05.04.2022 00:26 7,3 C 6,7 C 4,4 C 97 % 1005,4 hPa 0,0 l/m 0 min 2 min 0 W/m 25,7 km/h (4 Bft) 91,49 %
05.04.2022 00:28 7,3 C 6,7 C 4,4 C 97 % 1005,3 hPa 0,0 l/m 0 min 0 min 0 W/m 19,3 km/h (3 Bft) 91,30 %
05.04.2022 00:30 7,3 C 6,7 C 4,4 C 97 % 1005,4 hPa 0,0 l/m 0 min 0 min 0 W/m 25,7 km/h (4 Bft) 95,74 %
05.04.2022 00:32 7,3 C 6,7 C 4,4 C 97 % 1005,4 hPa 0,0 l/m 0 min 0 min 0 W/m 22,5 km/h (4 Bft) 93,62 %
05.04.2022 00:34 7,3 C 6,7 C 4,4 C 97 % 1005,4 hPa 0,0 l/m 0 min 0 min 0 W/m 22,5 km/h (4 Bft) 93,62 %
05.04.2022 00:36 7,3 C 6,7 C 4,4 C 97 % 1005,4 hPa 0,0 l/m 0 min 0 min 0 W/m 29,0 km/h (5 Bft) 91,49 %
05.04.2022 00:38 7,3 C 6,7 C 4,4 C 97 % 1005,6 hPa 0,0 l/m 0 min 2 min 0 W/m 25,7 km/h (4 Bft) 93,62 %
05.04.2022 00:40 7,4 C 6,7 C 4,4 C 97 % 1005,5 hPa 0,0 l/m 0 min 2 min 0 W/m 22,5 km/h (4 Bft) 91,30 %
05.04.2022 00:42 7,4 C 6,7 C 4,4 C 97 % 1005,4 hPa 0,0 l/m 0 min 0 min 0 W/m 25,7 km/h (4 Bft) 95,74 %
05.04.2022 00:44 7,4 C 6,7 C 4,4 C 97 % 1005,4 hPa 0,0 l/m 0 min 0 min 0 W/m 41,8 km/h (6 Bft) 95,74 %
05.04.2022 00:46 7,4 C 6,7 C 4,4 C 97 % 1005,4 hPa 0,0 l/m 0 min 0 min 0 W/m 29,0 km/h (5 Bft) 95,74 %
05.04.2022 00:48 7,4 C 6,7 C 4,4 C 97 % 1005,4 hPa 0,0 l/m 0 min 0 min 0 W/m 19,3 km/h (3 Bft) 95,74 %
05.04.2022 00:50 7,4 C 6,7 C 4,4 C 97 % 1005,4 hPa 0,0 l/m 0 min 2 min 0 W/m 22,5 km/h (4 Bft) 93,62 %
05.04.2022 00:52 7,4 C 6,7 C 4,4 C 97 % 1005,2 hPa 0,0 l/m 0 min 2 min 0 W/m 22,5 km/h (4 Bft) 93,48 %
05.04.2022 00:54 7,4 C 6,7 C 4,4 C 97 % 1005,3 hPa 0,2 l/m 0 min 2 min 0 W/m 22,5 km/h (4 Bft) 95,74 %
05.04.2022 00:56 7,4 C 6,7 C 4,4 C 97 % 1005,2 hPa 0,0 l/m 0 min 2 min 0 W/m 19,3 km/h (3 Bft) 95,74 %
05.04.2022 00:58 7,5 C 6,7 C 4,4 C 97 % 1005,3 hPa 0,0 l/m 0 min 2 min 0 W/m 29,0 km/h (5 Bft) 95,74 %
05.04.2022 01:00 7,5 C 6,7 C 4,4 C 98 % 1005,4 hPa 0,0 l/m 0 min 2 min 0 W/m 35,4 km/h (5 Bft) 95,74 %
05.04.2022 01:02 7,5 C 6,7 C 4,4 C 98 % 1005,3 hPa 0,0 l/m 0 min 2 min 0 W/m 16,1 km/h (3 Bft) 93,62 %
05.04.2022 01:04 7,6 C 6,7 C 4,4 C 98 % 1005,6 hPa 0,0 l/m 0 min 2 min 0 W/m 32,2 km/h (5 Bft) 95,65 %
05.04.2022 01:06 7,6 C 6,7 C 4,4 C 98 % 1005,2 hPa 0,0 l/m 0 min 0 min 0 W/m 25,7 km/h (4 Bft) 97,87 %
05.04.2022 01:08 7,6 C 6,7 C 4,4 C 98 % 1005,2 hPa 0,0 l/m 0 min 0 min 0 W/m 19,3 km/h (3 Bft) 100,00 %
05.04.2022 01:10 7,6 C 6,7 C 4,4 C 98 % 1005,3 hPa 0,0 l/m 0 min 2 min 0 W/m 22,5 km/h (4 Bft) 93,62 %
05.04.2022 01:12 7,6 C 6,7 C 4,4 C 98 % 1005,2 hPa 0,0 l/m 0 min 2 min 0 W/m 29,0 km/h (5 Bft) 97,87 %
05.04.2022 01:14 7,6 C 6,7 C 4,4 C 98 % 1005,3 hPa 0,0 l/m 0 min 2 min 0 W/m 22,5 km/h (4 Bft) 97,87 %
05.04.2022 01:16 7,6 C 6,7 C 4,4 C 98 % 1005,3 hPa 0,2 l/m 0 min 2 min 0 W/m 19,3 km/h (3 Bft) 97,87 %
05.04.2022 01:18 7,7 C 6,7 C 4,4 C 98 % 1005,3 hPa 0,0 l/m 0 min 2 min 0 W/m 19,3 km/h (3 Bft) 95,65 %
05.04.2022 01:20 7,7 C 6,7 C 4,4 C 98 % 1005,3 hPa 0,0 l/m 0 min 2 min 0 W/m 22,5 km/h (4 Bft) 100,00 %
05.04.2022 01:22 7,7 C 6,7 C 4,4 C 98 % 1005,2 hPa 0,0 l/m 0 min 2 min 0 W/m 29,0 km/h (5 Bft) 97,87 %
05.04.2022 01:24 7,7 C 6,7 C 4,4 C 98 % 1005,4 hPa 0,0 l/m 0 min 2 min 0 W/m 25,7 km/h (4 Bft) 100,00 %
05.04.2022 01:26 7,7 C 6,7 C 4,4 C 98 % 1005,3 hPa 0,0 l/m 0 min 2 min 0 W/m 16,1 km/h (3 Bft) 100,00 %
05.04.2022 01:28 7,7 C 6,7 C 5,0 C 98 % 1005,4 hPa 0,0 l/m 0 min 2 min 0 W/m 29,0 km/h (5 Bft) 100,00 %
05.04.2022 01:30 7,7 C 6,7 C 5,0 C 98 % 1005,4 hPa 0,2 l/m 0 min 2 min 0 W/m 22,5 km/h (4 Bft) 100,00 %
05.04.2022 01:32 7,8 C 6,7 C 5,0 C 98 % 1005,3 hPa 0,0 l/m 0 min 2 min 0 W/m 16,1 km/h (3 Bft) 100,00 %
05.04.2022 01:34 7,8 C 6,7 C 5,0 C 98 % 1005,4 hPa 0,0 l/m 0 min 2 min 0 W/m 19,3 km/h (3 Bft) 97,87 %
05.04.2022 01:36 7,8 C 6,7 C 5,0 C 98 % 1005,4 hPa 0,0 l/m 0 min 2 min 0 W/m 25,7 km/h (4 Bft) 100,00 %
05.04.2022 01:38 7,8 C 6,7 C 5,0 C 98 % 1005,3 hPa 0,0 l/m 0 min 2 min 0 W/m 12,9 km/h (3 Bft) 100,00 %
05.04.2022 01:40 7,8 C 6,7 C 5,0 C 98 % 1005,3 hPa 0,0 l/m 0 min 2 min 0 W/m 22,5 km/h (4 Bft) 100,00 %
05.04.2022 01:42 7,8 C 6,7 C 5,0 C 98 % 1005,2 hPa 0,0 l/m 0 min 2 min 0 W/m 22,5 km/h (4 Bft) 97,87 %
05.04.2022 01:44 7,8 C 6,7 C 5,0 C 98 % 1005,4 hPa 0,2 l/m 0 min 2 min 0 W/m 19,3 km/h (3 Bft) 100,00 %
05.04.2022 01:46 7,8 C 7,2 C 5,0 C 98 % 1005,5 hPa 0,0 l/m 0 min 2 min 0 W/m 22,5 km/h (4 Bft) 98,11 %
05.04.2022 01:48 7,8 C 7,2 C 5,0 C 98 % 1005,2 hPa 0,0 l/m 0 min 2 min 0 W/m 22,5 km/h (4 Bft) 100,00 %
05.04.2022 01:50 7,9 C 7,2 C 5,0 C 98 % 1005,2 hPa 0,0 l/m 0 min 2 min 0 W/m 19,3 km/h (3 Bft) 97,83 %
05.04.2022 01:52 7,9 C 7,2 C 5,0 C 98 % 1005,4 hPa 0,0 l/m 0 min 2 min 0 W/m 29,0 km/h (5 Bft) 95,74 %
05.04.2022 01:54 7,9 C 7,2 C 5,0 C 98 % 1005,3 hPa 0,0 l/m 0 min 2 min 0 W/m 22,5 km/h (4 Bft) 97,87 %
05.04.2022 01:56 7,9 C 7,2 C 5,0 C 98 % 1005,2 hPa 0,0 l/m 0 min 2 min 0 W/m 32,2 km/h (5 Bft) 100,00 %
05.04.2022 01:58 7,9 C 7,2 C 5,0 C 98 % 1005,3 hPa 0,0 l/m 0 min 2 min 0 W/m 22,5 km/h (4 Bft) 100,00 %
05.04.2022 02:00 7,9 C 7,2 C 5,0 C 98 % 1005,2 hPa 0,2 l/m 0 min 2 min 0 W/m 19,3 km/h (3 Bft) 97,87 %
05.04.2022 02:02 7,9 C 7,2 C 5,0 C 98 % 1005,3 hPa 0,0 l/m 0 min 2 min 0 W/m 19,3 km/h (3 Bft) 97,83 %
05.04.2022 02:04 7,9 C 7,2 C 5,0 C 98 % 1005,4 hPa 0,0 l/m 0 min 2 min 0 W/m 22,5 km/h (4 Bft) 97,87 %
05.04.2022 02:06 7,9 C 7,2 C 5,0 C 98 % 1005,3 hPa 0,0 l/m 0 min 2 min 0 W/m 25,7 km/h (4 Bft) 97,87 %
05.04.2022 02:08 8,0 C 7,2 C 5,0 C 98 % 1005,2 hPa 0,0 l/m 0 min 2 min 0 W/m 12,9 km/h (3 Bft) 97,87 %
05.04.2022 02:10 8,0 C 7,2 C 5,0 C 98 % 1005,3 hPa 0,0 l/m 0 min 2 min 0 W/m 29,0 km/h (5 Bft) 97,87 %
05.04.2022 02:12 8,0 C 7,2 C 5,0 C 98 % 1005,2 hPa 0,2 l/m 0 min 2 min 0 W/m 25,7 km/h (4 Bft) 97,87 %
05.04.2022 02:14 8,0 C 7,2 C 5,0 C 98 % 1005,2 hPa 0,0 l/m 0 min 2 min 0 W/m 16,1 km/h (3 Bft) 97,83 %
05.04.2022 02:16 8,0 C 7,2 C 5,0 C 98 % 1005,1 hPa 0,0 l/m 0 min 2 min 0 W/m 22,5 km/h (4 Bft) 97,87 %
05.04.2022 02:18 8,1 C 7,2 C 5,0 C 98 % 1005,3 hPa 0,0 l/m 0 min 2 min 0 W/m 25,7 km/h (4 Bft) 97,87 %
05.04.2022 02:20 8,1 C 7,2 C 5,0 C 98 % 1005,2 hPa 0,0 l/m 0 min 2 min 0 W/m 29,0 km/h (5 Bft) 97,87 %
05.04.2022 02:22 8,1 C 7,2 C 5,0 C 98 % 1005,2 hPa 0,0 l/m 0 min 2 min 0 W/m 25,7 km/h (4 Bft) 93,62 %
05.04.2022 02:24 8,1 C 7,2 C 5,0 C 98 % 1005,3 hPa 0,0 l/m 0 min 2 min 0 W/m 25,7 km/h (4 Bft) 97,87 %
05.04.2022 02:26 8,1 C 7,2 C 5,0 C 98 % 1005,2 hPa 0,0 l/m 0 min 2 min 0 W/m 19,3 km/h (3 Bft) 97,83 %
05.04.2022 02:28 8,1 C 7,2 C 5,0 C 98 % 1005,4 hPa 0,0 l/m 0 min 2 min 0 W/m 16,1 km/h (3 Bft) 97,87 %
05.04.2022 02:30 8,1 C 7,2 C 5,0 C 98 % 1005,2 hPa 0,2 l/m 0 min 0 min 0 W/m 22,5 km/h (4 Bft) 97,56 %
05.04.2022 02:32 8,1 C 7,2 C 5,0 C 98 % 1005,3 hPa 0,0 l/m 0 min 0 min 0 W/m 19,3 km/h (3 Bft) 98,11 %
05.04.2022 02:34 8,1 C 7,2 C 5,0 C 98 % 1005,3 hPa 0,0 l/m 0 min 2 min 0 W/m 19,3 km/h (3 Bft) 97,87 %
05.04.2022 02:36 8,1 C 7,2 C 5,0 C 98 % 1005,3 hPa 0,0 l/m 0 min 2 min 0 W/m 22,5 km/h (4 Bft) 97,83 %
05.04.2022 02:38 8,1 C 7,2 C 5,0 C 98 % 1005,3 hPa 0,0 l/m 0 min 2 min 0 W/m 22,5 km/h (4 Bft) 100,00 %
05.04.2022 02:40 8,1 C 7,2 C 5,0 C 98 % 1005,3 hPa 0,0 l/m 0 min 2 min 0 W/m 22,5 km/h (4 Bft) 100,00 %
05.04.2022 02:42 8,1 C 7,2 C 5,0 C 98 % 1005,3 hPa 0,0 l/m 0 min 0 min 0 W/m 22,5 km/h (4 Bft) 97,87 %
05.04.2022 02:44 8,1 C 7,2 C 5,0 C 98 % 1005,3 hPa 0,2 l/m 0 min 0 min 0 W/m 16,1 km/h (3 Bft) 100,00 %
05.04.2022 02:46 8,1 C 7,2 C 5,0 C 98 % 1005,2 hPa 0,0 l/m 0 min 0 min 0 W/m 22,5 km/h (4 Bft) 100,00 %
05.04.2022 02:48 8,1 C 7,2 C 5,0 C 98 % 1005,3 hPa 0,0 l/m 0 min 0 min 0 W/m 22,5 km/h (4 Bft) 100,00 %
05.04.2022 02:50 8,2 C 7,2 C 5,6 C 98 % 1005,3 hPa 0,0 l/m 0 min 0 min 0 W/m 16,1 km/h (3 Bft) 100,00 %
05.04.2022 02:52 8,2 C 7,2 C 5,6 C 98 % 1005,3 hPa 0,0 l/m 0 min 2 min 0 W/m 22,5 km/h (4 Bft) 97,87 %
05.04.2022 02:54 8,2 C 7,2 C 5,6 C 98 % 1005,3 hPa 0,0 l/m 0 min 0 min 0 W/m 19,3 km/h (3 Bft) 100,00 %
05.04.2022 02:56 8,2 C 7,2 C 5,6 C 98 % 1005,3 hPa 0,0 l/m 0 min 0 min 0 W/m 19,3 km/h (3 Bft) 100,00 %
05.04.2022 02:58 8,2 C 7,2 C 5,6 C 98 % 1005,3 hPa 0,0 l/m 0 min 0 min 0 W/m 19,3 km/h (3 Bft) 100,00 %
05.04.2022 03:00 8,2 C 7,2 C 5,6 C 98 % 1005,3 hPa 0,0 l/m 0 min 0 min 0 W/m 19,3 km/h (3 Bft) 97,83 %
05.04.2022 03:02 8,2 C 7,2 C 5,6 C 98 % 1005,3 hPa 0,0 l/m 0 min 0 min 0 W/m 16,1 km/h (3 Bft) 95,74 %
05.04.2022 03:04 8,2 C 7,2 C 5,6 C 98 % 1005,4 hPa 0,2 l/m 0 min 2 min 0 W/m 16,1 km/h (3 Bft) 95,74 %
05.04.2022 03:06 8,2 C 7,2 C 5,6 C 98 % 1005,3 hPa 0,0 l/m 0 min 0 min 0 W/m 12,9 km/h (3 Bft) 97,87 %
05.04.2022 03:08 8,2 C 7,2 C 5,6 C 98 % 1005,4 hPa 0,0 l/m 0 min 0 min 0 W/m 19,3 km/h (3 Bft) 97,87 %
05.04.2022 03:10 8,2 C 7,2 C 5,6 C 98 % 1005,3 hPa 0,0 l/m 0 min 0 min 0 W/m 25,7 km/h (4 Bft) 93,62 %
05.04.2022 03:12 8,3 C 7,2 C 5,6 C 98 % 1005,4 hPa 0,0 l/m 0 min 0 min 0 W/m 16,1 km/h (3 Bft) 95,65 %
05.04.2022 03:14 8,3 C 7,2 C 5,6 C 98 % 1005,4 hPa 0,0 l/m 0 min 0 min 0 W/m 16,1 km/h (3 Bft) 93,62 %
05.04.2022 03:16 8,3 C 7,2 C 5,6 C 98 % 1005,4 hPa 0,0 l/m 0 min 2 min 0 W/m 19,3 km/h (3 Bft) 95,74 %
05.04.2022 03:18 8,3 C 7,2 C 5,6 C 98 % 1005,3 hPa 0,0 l/m 0 min 2 min 0 W/m 22,5 km/h (4 Bft) 95,74 %
05.04.2022 03:20 8,3 C 7,2 C 5,6 C 98 % 1005,4 hPa 0,2 l/m 0 min 2 min 0 W/m 22,5 km/h (4 Bft) 95,74 %
05.04.2022 03:22 8,3 C 7,2 C 5,6 C 98 % 1005,5 hPa 0,0 l/m 0 min 2 min 0 W/m 19,3 km/h (3 Bft) 91,49 %
05.04.2022 03:24 8,4 C 7,2 C 5,6 C 98 % 1005,5 hPa 0,0 l/m 0 min 2 min 0 W/m 22,5 km/h (4 Bft) 95,65 %
05.04.2022 03:26 8,4 C 7,2 C 5,6 C 98 % 1005,5 hPa 0,0 l/m 0 min 2 min 0 W/m 16,1 km/h (3 Bft) 95,74 %
05.04.2022 03:28 8,4 C 7,8 C 5,6 C 98 % 1005,4 hPa 0,0 l/m 0 min 2 min 0 W/m 19,3 km/h (3 Bft) 89,36 %
05.04.2022 03:30 8,4 C 7,8 C 5,6 C 98 % 1005,5 hPa 0,0 l/m 0 min 2 min 0 W/m 16,1 km/h (3 Bft) 93,62 %
05.04.2022 03:32 8,4 C 7,8 C 5,6 C 98 % 1005,5 hPa 0,2 l/m 0 min 2 min 0 W/m 19,3 km/h (3 Bft) 95,74 %
05.04.2022 03:34 8,4 C 7,8 C 5,6 C 98 % 1005,6 hPa 0,0 l/m 0 min 2 min 0 W/m 19,3 km/h (3 Bft) 97,87 %
05.04.2022 03:36 8,4 C 7,8 C 5,6 C 98 % 1005,7 hPa 0,0 l/m 0 min 2 min 0 W/m 16,1 km/h (3 Bft) 95,65 %
05.04.2022 03:38 8,4 C 7,8 C 5,6 C 98 % 1005,5 hPa 0,0 l/m 0 min 2 min 0 W/m 12,9 km/h (3 Bft) 78,72 %
05.04.2022 03:40 8,4 C 7,8 C 5,6 C 98 % 1005,5 hPa 0,0 l/m 0 min 0 min 0 W/m 22,5 km/h (4 Bft) 60,00 %
05.04.2022 03:42 8,5 C 7,8 C 5,6 C 98 % 1005,6 hPa 0,2 l/m 0 min 2 min 0 W/m 22,5 km/h (4 Bft) 95,74 %
05.04.2022 03:44 8,5 C 7,8 C 5,6 C 98 % 1005,5 hPa 0,0 l/m 0 min 2 min 0 W/m 16,1 km/h (3 Bft) 95,74 %
05.04.2022 03:46 8,5 C 7,8 C 5,6 C 98 % 1005,4 hPa 0,0 l/m 0 min 2 min 0 W/m 25,7 km/h (4 Bft) 95,65 %
05.04.2022 03:48 8,5 C 7,8 C 5,6 C 98 % 1005,5 hPa 0,0 l/m 0 min 2 min 0 W/m 19,3 km/h (3 Bft) 95,74 %
05.04.2022 03:50 8,5 C 7,8 C 5,6 C 98 % 1005,4 hPa 0,0 l/m 0 min 2 min 0 W/m 19,3 km/h (3 Bft) 91,49 %
05.04.2022 03:52 8,5 C 7,8 C 5,6 C 98 % 1005,4 hPa 0,0 l/m 0 min 0 min 0 W/m 22,5 km/h (4 Bft) 91,49 %
05.04.2022 03:54 8,5 C 7,8 C 5,6 C 98 % 1005,4 hPa 0,2 l/m 0 min 2 min 0 W/m 16,1 km/h (3 Bft) 95,74 %
05.04.2022 03:56 8,5 C 7,8 C 5,6 C 98 % 1005,4 hPa 0,0 l/m 0 min 2 min 0 W/m 16,1 km/h (3 Bft) 97,87 %
05.04.2022 03:58 8,5 C 7,8 C 5,6 C 98 % 1005,4 hPa 0,0 l/m 0 min 2 min 0 W/m 16,1 km/h (3 Bft) 100,00 %
05.04.2022 04:00 8,5 C 7,8 C 5,6 C 98 % 1005,4 hPa 0,0 l/m 0 min 2 min 0 W/m 16,1 km/h (3 Bft) 95,74 %
05.04.2022 04:02 8,5 C 7,8 C 5,6 C 98 % 1005,4 hPa 0,0 l/m 0 min 2 min 0 W/m 12,9 km/h (3 Bft) 100,00 %
05.04.2022 04:04 8,6 C 7,8 C 5,6 C 99 % 1005,4 hPa 0,0 l/m 0 min 2 min 0 W/m 12,9 km/h (3 Bft) 95,12 %
05.04.2022 04:06 8,5 C 7,8 C 5,6 C 99 % 1005,4 hPa 0,2 l/m 0 min 2 min 0 W/m 22,5 km/h (4 Bft) 98,11 %
05.04.2022 04:08 8,6 C 7,8 C 5,6 C 99 % 1005,3 hPa 0,0 l/m 0 min 2 min 0 W/m 19,3 km/h (3 Bft) 95,74 %
05.04.2022 04:10 8,6 C 7,8 C 5,6 C 98 % 1005,4 hPa 0,0 l/m 0 min 2 min 0 W/m 12,9 km/h (3 Bft) 95,65 %
05.04.2022 04:12 8,6 C 7,8 C 5,6 C 98 % 1005,4 hPa 0,0 l/m 0 min 2 min 0 W/m 12,9 km/h (3 Bft) 97,87 %
05.04.2022 04:14 8,6 C 7,8 C 5,6 C 98 % 1005,4 hPa 0,0 l/m 0 min 2 min 0 W/m 12,9 km/h (3 Bft) 95,74 %
05.04.2022 04:16 8,6 C 7,8 C 6,1 C 98 % 1005,3 hPa 0,2 l/m 0 min 2 min 0 W/m 16,1 km/h (3 Bft) 97,87 %
05.04.2022 04:18 8,6 C 7,8 C 6,1 C 98 % 1005,3 hPa 0,0 l/m 0 min 2 min 0 W/m 22,5 km/h (4 Bft) 97,87 %
05.04.2022 04:20 8,6 C 7,8 C 6,1 C 98 % 1005,4 hPa 0,0 l/m 0 min 2 min 0 W/m 25,7 km/h (4 Bft) 97,87 %
05.04.2022 04:22 8,6 C 7,8 C 6,1 C 98 % 1005,3 hPa 0,0 l/m 0 min 0 min 0 W/m 22,5 km/h (4 Bft) 97,83 %
05.04.2022 04:24 8,6 C 7,8 C 6,1 C 98 % 1005,4 hPa 0,0 l/m 0 min 0 min 0 W/m 22,5 km/h (4 Bft) 97,87 %
05.04.2022 04:26 8,6 C 7,8 C 6,1 C 99 % 1005,3 hPa 0,2 l/m 0 min 0 min 0 W/m 12,9 km/h (3 Bft) 95,74 %
05.04.2022 04:31 8,7 C 7,8 C 6,1 C 99 % 1005,4 hPa 0,0 l/m 0 min 5 min 0 W/m 29,0 km/h (5 Bft) 97,62 %
05.04.2022 04:32 8,7 C 7,8 C 6,1 C 99 % 1005,4 hPa 0,0 l/m 0 min 1 min 0 W/m 16,1 km/h (3 Bft) 100,00 %
05.04.2022 04:34 8,7 C 7,8 C 6,1 C 99 % 1005,4 hPa 0,0 l/m 0 min 2 min 0 W/m 12,9 km/h (3 Bft) 97,83 %
05.04.2022 04:36 8,7 C 7,8 C 6,1 C 99 % 1005,4 hPa 0,2 l/m 0 min 2 min 0 W/m 16,1 km/h (3 Bft) 100,00 %
05.04.2022 04:38 8,7 C 7,8 C 6,1 C 99 % 1005,4 hPa 0,0 l/m 0 min 2 min 0 W/m 22,5 km/h (4 Bft) 100,00 %
05.04.2022 04:40 8,7 C 7,8 C 6,1 C 99 % 1005,4 hPa 0,0 l/m 0 min 2 min 0 W/m 22,5 km/h (4 Bft) 100,00 %
05.04.2022 04:42 8,7 C 7,8 C 6,1 C 99 % 1005,4 hPa 0,0 l/m 0 min 2 min 0 W/m 16,1 km/h (3 Bft) 100,00 %
05.04.2022 04:44 8,7 C 7,8 C 6,1 C 99 % 1005,5 hPa 0,2 l/m 0 min 2 min 0 W/m 12,9 km/h (3 Bft) 100,00 %
05.04.2022 04:46 8,8 C 7,8 C 6,1 C 99 % 1005,5 hPa 0,0 l/m 0 min 2 min 0 W/m 12,9 km/h (3 Bft) 100,00 %
05.04.2022 04:48 8,8 C 7,8 C 6,1 C 99 % 1005,5 hPa 0,0 l/m 0 min 2 min 0 W/m 12,9 km/h (3 Bft) 97,87 %
05.04.2022 04:50 8,8 C 7,8 C 6,1 C 99 % 1005,5 hPa 0,0 l/m 0 min 2 min 0 W/m 12,9 km/h (3 Bft) 100,00 %
05.04.2022 04:52 8,8 C 7,8 C 6,1 C 99 % 1005,5 hPa 0,0 l/m 0 min 2 min 0 W/m 16,1 km/h (3 Bft) 100,00 %
05.04.2022 04:54 8,8 C 7,8 C 6,1 C 99 % 1005,5 hPa 0,2 l/m 0 min 2 min 0 W/m 12,9 km/h (3 Bft) 100,00 %
05.04.2022 04:56 8,8 C 7,8 C 6,1 C 99 % 1005,4 hPa 0,0 l/m 0 min 2 min 0 W/m 12,9 km/h (3 Bft) 100,00 %
05.04.2022 04:58 8,8 C 7,8 C 6,1 C 99 % 1005,4 hPa 0,0 l/m 0 min 2 min 0 W/m 12,9 km/h (3 Bft) 100,00 %
05.04.2022 05:00 8,8 C 7,8 C 6,1 C 99 % 1005,4 hPa 0,2 l/m 0 min 2 min 0 W/m 16,1 km/h (3 Bft) 100,00 %
05.04.2022 05:02 8,8 C 7,8 C 6,1 C 99 % 1005,4 hPa 0,0 l/m 0 min 2 min 0 W/m 12,9 km/h (3 Bft) 100,00 %
05.04.2022 05:04 8,9 C 7,8 C 6,1 C 99 % 1005,4 hPa 0,0 l/m 0 min 2 min 0 W/m 12,9 km/h (3 Bft) 100,00 %
05.04.2022 05:06 8,9 C 7,8 C 6,1 C 99 % 1005,4 hPa 0,0 l/m 0 min 2 min 0 W/m 6,4 km/h (2 Bft) 100,00 %
05.04.2022 05:08 8,9 C 7,8 C 6,1 C 99 % 1005,4 hPa 0,0 l/m 0 min 2 min 0 W/m 16,1 km/h (3 Bft) 100,00 %
05.04.2022 05:10 8,9 C 7,8 C 6,1 C 99 % 1005,5 hPa 0,0 l/m 0 min 2 min 0 W/m 9,7 km/h (2 Bft) 100,00 %
05.04.2022 05:12 8,9 C 7,8 C 6,1 C 99 % 1005,5 hPa 0,2 l/m 0 min 2 min 0 W/m 12,9 km/h (3 Bft) 100,00 %
05.04.2022 05:14 8,9 C 7,8 C 6,1 C 99 % 1005,5 hPa 0,0 l/m 0 min 2 min 0 W/m 12,9 km/h (3 Bft) 100,00 %
05.04.2022 05:16 8,9 C 8,3 C 6,1 C 99 % 1005,4 hPa 0,0 l/m 0 min 2 min 0 W/m 12,9 km/h (3 Bft) 100,00 %
05.04.2022 05:18 8,9 C 8,3 C 6,1 C 99 % 1005,5 hPa 0,0 l/m 0 min 2 min 0 W/m 6,4 km/h (2 Bft) 100,00 %
05.04.2022 05:20 9,0 C 8,3 C 6,1 C 99 % 1005,5 hPa 0,0 l/m 0 min 2 min 0 W/m 12,9 km/h (3 Bft) 100,00 %
05.04.2022 05:22 9,0 C 8,3 C 6,1 C 99 % 1005,5 hPa 0,0 l/m 0 min 2 min 0 W/m 16,1 km/h (3 Bft) 97,73 %
05.04.2022 05:24 9,0 C 8,3 C 6,1 C 99 % 1005,5 hPa 0,2 l/m 0 min 2 min 0 W/m 9,7 km/h (2 Bft) 100,00 %
05.04.2022 05:26 9,0 C 8,3 C 6,1 C 99 % 1005,5 hPa 0,0 l/m 0 min 2 min 0 W/m 6,4 km/h (2 Bft) 100,00 %
05.04.2022 05:28 9,1 C 8,3 C 6,1 C 99 % 1005,5 hPa 0,0 l/m 0 min 2 min 0 W/m 12,9 km/h (3 Bft) 100,00 %
05.04.2022 05:30 9,1 C 8,3 C 6,7 C 99 % 1005,5 hPa 0,0 l/m 0 min 2 min 0 W/m 16,1 km/h (3 Bft) 95,45 %
05.04.2022 05:32 9,1 C 8,3 C 6,7 C 99 % 1005,4 hPa 0,0 l/m 0 min 2 min 0 W/m 9,7 km/h (2 Bft) 95,92 %
05.04.2022 05:34 9,1 C 8,3 C 6,7 C 99 % 1005,5 hPa 0,0 l/m 0 min 2 min 0 W/m 12,9 km/h (3 Bft) 100,00 %
05.04.2022 05:36 9,1 C 8,3 C 6,7 C 99 % 1005,5 hPa 0,0 l/m 0 min 2 min 0 W/m 19,3 km/h (3 Bft) 100,00 %
05.04.2022 05:38 9,1 C 8,3 C 6,7 C 99 % 1005,5 hPa 0,2 l/m 0 min 2 min 0 W/m 16,1 km/h (3 Bft) 98,21 %
05.04.2022 05:40 9,1 C 8,3 C 6,7 C 99 % 1005,4 hPa 0,0 l/m 0 min 2 min 0 W/m 19,3 km/h (3 Bft) 100,00 %
05.04.2022 05:42 9,2 C 8,3 C 6,7 C 99 % 1005,4 hPa 0,0 l/m 0 min 2 min 0 W/m 16,1 km/h (3 Bft) 100,00 %
05.04.2022 05:44 9,2 C 8,3 C 6,7 C 99 % 1005,4 hPa 0,0 l/m 0 min 2 min 0 W/m 16,1 km/h (3 Bft) 97,96 %
05.04.2022 05:46 9,2 C 8,3 C 6,7 C 99 % 1005,5 hPa 0,0 l/m 0 min 2 min 0 W/m 12,9 km/h (3 Bft) 97,14 %
05.04.2022 05:48 9,2 C 8,3 C 6,7 C 99 % 1005,5 hPa 0,0 l/m 0 min 2 min 0 W/m 19,3 km/h (3 Bft) 96,43 %
05.04.2022 05:50 9,2 C 8,3 C 6,7 C 99 % 1005,5 hPa 0,0 l/m 0 min 2 min 0 W/m 9,7 km/h (2 Bft) 98,00 %
05.04.2022 05:52 9,2 C 8,3 C 6,7 C 99 % 1005,5 hPa 0,0 l/m 0 min 0 min 0 W/m 12,9 km/h (3 Bft) 97,14 %
05.04.2022 05:54 9,2 C 8,3 C 6,7 C 99 % 1005,5 hPa 0,0 l/m 0 min 2 min 0 W/m 22,5 km/h (4 Bft) 98,21 %
05.04.2022 05:56 9,2 C 8,3 C 6,7 C 99 % 1005,5 hPa 0,0 l/m 0 min 2 min 0 W/m 12,9 km/h (3 Bft) 95,92 %
05.04.2022 05:58 9,2 C 8,3 C 6,7 C 99 % 1005,5 hPa 0,2 l/m 0 min 2 min 0 W/m 16,1 km/h (3 Bft) 92,11 %
05.04.2022 06:00 9,2 C 8,3 C 6,7 C 99 % 1005,5 hPa 0,0 l/m 0 min 2 min 0 W/m 12,9 km/h (3 Bft) 93,62 %
05.04.2022 06:02 9,2 C 8,3 C 6,7 C 99 % 1005,5 hPa 0,0 l/m 0 min 2 min 0 W/m 12,9 km/h (3 Bft) 91,07 %
05.04.2022 06:04 9,2 C 8,3 C 6,7 C 99 % 1005,5 hPa 0,0 l/m 0 min 2 min 0 W/m 6,4 km/h (2 Bft) 90,91 %
05.04.2022 06:08 9,2 C 8,3 C 6,7 C 99 % 1005,5 hPa 0,0 l/m 0 min 4 min 0 W/m 16,1 km/h (3 Bft) 92,31 %
05.04.2022 06:10 9,3 C 8,3 C 6,7 C 99 % 1005,6 hPa 0,0 l/m 0 min 2 min 0 W/m 12,9 km/h (3 Bft) 89,80 %
05.04.2022 06:12 9,2 C 8,3 C 6,7 C 99 % 1005,5 hPa 0,2 l/m 0 min 2 min 0 W/m 12,9 km/h (3 Bft) 95,74 %
05.04.2022 06:14 9,2 C 8,3 C 6,7 C 99 % 1005,5 hPa 0,0 l/m 0 min 2 min 0 W/m 12,9 km/h (3 Bft) 94,44 %
05.04.2022 06:16 9,2 C 8,3 C 6,7 C 99 % 1005,5 hPa 0,0 l/m 0 min 2 min 0 W/m 9,7 km/h (2 Bft) 92,11 %
05.04.2022 06:18 9,3 C 8,3 C 6,7 C 99 % 1005,5 hPa 0,0 l/m 0 min 2 min 0 W/m 16,1 km/h (3 Bft) 93,75 %
05.04.2022 06:20 9,3 C 8,3 C 6,7 C 99 % 1005,6 hPa 0,2 l/m 0 min 2 min 0 W/m 16,1 km/h (3 Bft) 93,62 %
05.04.2022 06:22 9,3 C 8,3 C 6,7 C 99 % 1005,6 hPa 0,0 l/m 0 min 2 min 0 W/m 9,7 km/h (2 Bft) 92,59 %
05.04.2022 06:24 9,3 C 8,3 C 6,7 C 99 % 1005,6 hPa 0,0 l/m 0 min 2 min 0 W/m 6,4 km/h (2 Bft) 92,11 %
05.04.2022 06:26 9,3 C 8,3 C 6,7 C 99 % 1005,5 hPa 0,0 l/m 0 min 2 min 0 W/m 12,9 km/h (3 Bft) 91,84 %
05.04.2022 06:28 9,3 C 8,3 C 6,7 C 99 % 1005,6 hPa 0,0 l/m 0 min 2 min 0 W/m 9,7 km/h (2 Bft) 93,62 %
05.04.2022 06:30 9,3 C 8,3 C 6,7 C 99 % 1005,6 hPa 0,0 l/m 0 min 2 min 0 W/m 6,4 km/h (2 Bft) 93,48 %
05.04.2022 06:32 9,3 C 8,3 C 6,7 C 99 % 1005,5 hPa 0,0 l/m 0 min 2 min 0 W/m 16,1 km/h (3 Bft) 98,15 %
05.04.2022 06:34 9,3 C 8,3 C 6,7 C 99 % 1005,6 hPa 0,0 l/m 0 min 2 min 0 W/m 12,9 km/h (3 Bft) 94,74 %
05.04.2022 06:36 9,3 C 8,3 C 6,7 C 99 % 1005,6 hPa 0,0 l/m 0 min 2 min 0 W/m 9,7 km/h (2 Bft) 97,96 %
05.04.2022 06:38 9,3 C 8,3 C 6,7 C 99 % 1005,5 hPa 0,0 l/m 0 min 2 min 0 W/m 6,4 km/h (2 Bft) 97,87 %
05.04.2022 06:40 9,3 C 8,3 C 6,7 C 99 % 1005,6 hPa 0,2 l/m 0 min 2 min 0 W/m 6,4 km/h (2 Bft) 95,74 %
05.04.2022 06:42 9,3 C 8,3 C 6,7 C 99 % 1005,6 hPa 0,0 l/m 0 min 2 min 0 W/m 12,9 km/h (3 Bft) 100,00 %
05.04.2022 06:44 9,3 C 8,3 C 6,7 C 99 % 1005,6 hPa 0,0 l/m 0 min 2 min 0 W/m 9,7 km/h (2 Bft) 100,00 %
05.04.2022 06:46 9,3 C 8,3 C 6,7 C 99 % 1005,6 hPa 0,0 l/m 0 min 2 min 0 W/m 12,9 km/h (3 Bft) 97,37 %
05.04.2022 06:48 9,3 C 8,3 C 6,7 C 99 % 1005,6 hPa 0,0 l/m 0 min 2 min 0 W/m 9,7 km/h (2 Bft) 100,00 %
05.04.2022 06:50 9,3 C 8,3 C 6,7 C 99 % 1005,5 hPa 0,0 l/m 0 min 2 min 0 W/m 12,9 km/h (3 Bft) 97,87 %
05.04.2022 06:52 9,3 C 8,3 C 6,7 C 99 % 1005,6 hPa 0,2 l/m 0 min 2 min 0 W/m 12,9 km/h (3 Bft) 100,00 %
05.04.2022 06:54 9,3 C 8,3 C 6,7 C 99 % 1005,6 hPa 0,0 l/m 0 min 2 min 0 W/m 12,9 km/h (3 Bft) 100,00 %
05.04.2022 06:56 9,3 C 8,3 C 6,7 C 99 % 1005,6 hPa 0,0 l/m 0 min 2 min 0 W/m 12,9 km/h (3 Bft) 55,56 %
05.04.2022 06:58 9,3 C 8,3 C 6,7 C 99 % 1005,6 hPa 0,0 l/m 0 min 2 min 0 W/m 22,5 km/h (4 Bft) 96,00 %
05.04.2022 07:00 9,3 C 8,3 C 6,7 C 99 % 1005,6 hPa 0,0 l/m 0 min 2 min 0 W/m 12,9 km/h (3 Bft) 97,96 %
05.04.2022 07:02 9,3 C 8,3 C 6,7 C 99 % 1005,5 hPa 0,0 l/m 0 min 2 min 0 W/m 22,5 km/h (4 Bft) 100,00 %
05.04.2022 07:04 9,3 C 8,3 C 6,7 C 99 % 1005,6 hPa 0,0 l/m 0 min 2 min 0 W/m 16,1 km/h (3 Bft) 100,00 %
05.04.2022 07:06 9,3 C 8,3 C 6,7 C 99 % 1005,6 hPa 0,0 l/m 0 min 2 min 0 W/m 22,5 km/h (4 Bft) 100,00 %
05.04.2022 07:08 9,3 C 8,3 C 6,7 C 99 % 1005,6 hPa 0,0 l/m 0 min 2 min 0 W/m 9,7 km/h (2 Bft) 100,00 %
05.04.2022 07:10 9,3 C 8,3 C 6,7 C 99 % 1005,7 hPa 0,2 l/m 0 min 2 min 0 W/m 12,9 km/h (3 Bft) 97,87 %
05.04.2022 07:12 9,3 C 8,3 C 6,7 C 99 % 1005,7 hPa 0,0 l/m 0 min 2 min 0 W/m 16,1 km/h (3 Bft) 100,00 %
05.04.2022 07:14 9,3 C 8,3 C 6,7 C 99 % 1005,6 hPa 0,0 l/m 0 min 2 min 0 W/m 12,9 km/h (3 Bft) 98,15 %
05.04.2022 07:16 9,3 C 8,3 C 6,7 C 99 % 1005,6 hPa 0,0 l/m 0 min 2 min 0 W/m 9,7 km/h (2 Bft) 100,00 %
05.04.2022 07:18 9,3 C 8,3 C 6,7 C 99 % 1005,7 hPa 0,0 l/m 0 min 2 min 4 W/m 16,1 km/h (3 Bft) 100,00 %
05.04.2022 07:20 9,3 C 8,3 C 6,7 C 99 % 1005,7 hPa 0,0 l/m 0 min 2 min 5 W/m 16,1 km/h (3 Bft) 100,00 %
05.04.2022 07:22 9,3 C 8,3 C 6,7 C 99 % 1005,7 hPa 0,0 l/m 0 min 2 min 5 W/m 16,1 km/h (3 Bft) 100,00 %
05.04.2022 07:24 9,3 C 8,3 C 6,7 C 99 % 1005,7 hPa 0,0 l/m 0 min 2 min 7 W/m 12,9 km/h (3 Bft) 98,15 %
05.04.2022 07:26 9,3 C 8,3 C 6,7 C 99 % 1005,7 hPa 0,0 l/m 0 min 2 min 8 W/m 16,1 km/h (3 Bft) 100,00 %
05.04.2022 07:28 9,3 C 8,3 C 6,7 C 99 % 1005,8 hPa 0,0 l/m 0 min 2 min 10 W/m 12,9 km/h (3 Bft) 100,00 %
05.04.2022 07:30 9,3 C 8,3 C 6,7 C 99 % 1005,7 hPa 0,0 l/m 0 min 2 min 11 W/m 12,9 km/h (3 Bft) 100,00 %
05.04.2022 07:32 9,3 C 8,3 C 6,7 C 99 % 1005,7 hPa 0,0 l/m 0 min 2 min 12 W/m 22,5 km/h (4 Bft) 100,00 %
05.04.2022 07:34 9,3 C 8,3 C 6,7 C 99 % 1005,7 hPa 0,2 l/m 0 min 2 min 12 W/m 16,1 km/h (3 Bft) 100,00 %
05.04.2022 07:36 9,4 C 8,3 C 6,7 C 99 % 1005,8 hPa 0,0 l/m 0 min 2 min 15 W/m 6,4 km/h (2 Bft) 100,00 %
05.04.2022 07:38 9,3 C 8,3 C 6,7 C 99 % 1005,7 hPa 0,0 l/m 0 min 2 min 14 W/m 16,1 km/h (3 Bft) 100,00 %
05.04.2022 07:40 9,4 C 8,3 C 6,7 C 99 % 1005,8 hPa 0,0 l/m 0 min 2 min 17 W/m 12,9 km/h (3 Bft) 97,87 %
05.04.2022 07:42 9,4 C 8,3 C 6,7 C 99 % 1005,8 hPa 0,0 l/m 0 min 2 min 15 W/m 12,9 km/h (3 Bft) 100,00 %
05.04.2022 07:44 9,4 C 8,3 C 6,7 C 99 % 1005,8 hPa 0,0 l/m 0 min 2 min 15 W/m 19,3 km/h (3 Bft) 100,00 %
05.04.2022 07:46 9,4 C 8,3 C 6,7 C 99 % 1005,8 hPa 0,0 l/m 0 min 2 min 17 W/m 6,4 km/h (2 Bft) 100,00 %
05.04.2022 07:48 9,4 C 8,3 C 6,7 C 99 % 1005,8 hPa 0,0 l/m 0 min 2 min 21 W/m 19,3 km/h (3 Bft) 100,00 %
05.04.2022 07:50 9,4 C 8,3 C 6,7 C 99 % 1005,8 hPa 0,0 l/m 0 min 2 min 20 W/m 16,1 km/h (3 Bft) 100,00 %
05.04.2022 07:52 9,4 C 8,3 C 6,7 C 99 % 1005,8 hPa 0,0 l/m 0 min 2 min 23 W/m 16,1 km/h (3 Bft) 100,00 %
05.04.2022 07:54 9,4 C 8,3 C 7,2 C 99 % 1005,8 hPa 0,0 l/m 0 min 2 min 20 W/m 16,1 km/h (3 Bft) 100,00 %
05.04.2022 07:56 9,4 C 8,3 C 7,2 C 99 % 1005,8 hPa 0,2 l/m 0 min 2 min 19 W/m 16,1 km/h (3 Bft) 96,00 %
05.04.2022 07:58 9,4 C 8,3 C 7,2 C 99 % 1005,8 hPa 0,0 l/m 0 min 2 min 21 W/m 16,1 km/h (3 Bft) 97,37 %
05.04.2022 08:00 9,4 C 8,3 C 7,2 C 99 % 1005,8 hPa 0,0 l/m 0 min 2 min 24 W/m 19,3 km/h (3 Bft) 97,87 %
05.04.2022 08:02 9,4 C 8,3 C 7,2 C 99 % 1005,8 hPa 0,0 l/m 0 min 2 min 24 W/m 12,9 km/h (3 Bft) 98,00 %
05.04.2022 08:04 9,4 C 8,3 C 7,2 C 99 % 1005,9 hPa 0,0 l/m 0 min 2 min 20 W/m 12,9 km/h (3 Bft) 93,88 %
05.04.2022 08:06 9,4 C 8,3 C 7,2 C 99 % 1005,9 hPa 0,0 l/m 0 min 2 min 21 W/m 12,9 km/h (3 Bft) 95,92 %
05.04.2022 08:08 9,4 C 8,9 C 7,2 C 99 % 1005,9 hPa 0,0 l/m 0 min 2 min 19 W/m 25,7 km/h (4 Bft) 97,87 %
05.04.2022 08:10 9,4 C 8,9 C 7,2 C 99 % 1005,9 hPa 0,2 l/m 0 min 2 min 23 W/m 22,5 km/h (4 Bft) 97,87 %
05.04.2022 08:12 9,4 C 8,3 C 7,2 C 99 % 1005,9 hPa 0,0 l/m 0 min 2 min 28 W/m 6,4 km/h (2 Bft) 97,14 %
05.04.2022 08:14 9,4 C 8,9 C 7,2 C 99 % 1005,9 hPa 0,0 l/m 0 min 0 min 28 W/m 16,1 km/h (3 Bft) 98,11 %
05.04.2022 08:16 9,4 C 8,9 C 7,2 C 99 % 1005,9 hPa 0,0 l/m 0 min 2 min 30 W/m 6,4 km/h (2 Bft) 96,00 %
05.04.2022 08:18 9,4 C 8,9 C 7,2 C 99 % 1005,9 hPa 0,0 l/m 0 min 2 min 27 W/m 16,1 km/h (3 Bft) 95,92 %
05.04.2022 08:20 9,4 C 8,9 C 7,2 C 99 % 1006,0 hPa 0,0 l/m 0 min 0 min 26 W/m 12,9 km/h (3 Bft) 100,00 %
05.04.2022 08:22 9,5 C 8,9 C 7,2 C 99 % 1006,0 hPa 0,0 l/m 0 min 0 min 28 W/m 22,5 km/h (4 Bft) 95,74 %
05.04.2022 08:24 9,4 C 8,9 C 7,2 C 99 % 1006,0 hPa 0,0 l/m 0 min 0 min 31 W/m 6,4 km/h (2 Bft) 94,44 %
05.04.2022 08:26 9,4 C 8,9 C 7,2 C 99 % 1006,0 hPa 0,0 l/m 0 min 2 min 37 W/m 19,3 km/h (3 Bft) 97,96 %
05.04.2022 08:28 9,5 C 8,9 C 7,2 C 99 % 1006,0 hPa 0,0 l/m 0 min 2 min 36 W/m 12,9 km/h (3 Bft) 93,88 %
05.04.2022 08:30 9,5 C 8,9 C 7,2 C 99 % 1006,0 hPa 0,0 l/m 0 min 2 min 37 W/m 12,9 km/h (3 Bft) 97,87 %
05.04.2022 08:32 9,5 C 8,9 C 7,2 C 99 % 1006,0 hPa 0,0 l/m 0 min 2 min 41 W/m 12,9 km/h (3 Bft) 94,29 %
05.04.2022 08:34 9,5 C 8,9 C 7,2 C 99 % 1006,0 hPa 0,0 l/m 0 min 2 min 40 W/m 12,9 km/h (3 Bft) 98,15 %
05.04.2022 08:36 9,5 C 8,9 C 7,2 C 99 % 1006,1 hPa 0,0 l/m 0 min 0 min 45 W/m 16,1 km/h (3 Bft) 98,00 %
05.04.2022 08:38 9,5 C 8,9 C 7,2 C 99 % 1006,1 hPa 0,0 l/m 0 min 0 min 43 W/m 9,7 km/h (2 Bft) 95,65 %
05.04.2022 08:40 9,6 C 8,9 C 7,2 C 99 % 1006,2 hPa 0,0 l/m 0 min 0 min 40 W/m 12,9 km/h (3 Bft) 97,87 %
05.04.2022 08:42 9,6 C 8,9 C 7,2 C 99 % 1006,1 hPa 0,0 l/m 0 min 0 min 41 W/m 12,9 km/h (3 Bft) 98,00 %
05.04.2022 08:44 9,6 C 8,9 C 7,2 C 99 % 1006,1 hPa 0,0 l/m 0 min 0 min 39 W/m 12,9 km/h (3 Bft) 97,30 %
05.04.2022 08:46 9,6 C 8,9 C 7,2 C 99 % 1006,2 hPa 0,0 l/m 0 min 0 min 40 W/m 19,3 km/h (3 Bft) 95,74 %
05.04.2022 08:48 9,6 C 8,9 C 7,2 C 99 % 1006,2 hPa 0,0 l/m 0 min 2 min 37 W/m 19,3 km/h (3 Bft) 96,23 %
05.04.2022 08:50 9,6 C 8,9 C 7,2 C 99 % 1006,2 hPa 0,0 l/m 0 min 0 min 36 W/m 12,9 km/h (3 Bft) 96,00 %
05.04.2022 08:52 9,6 C 8,9 C 7,2 C 99 % 1006,2 hPa 0,0 l/m 0 min 2 min 33 W/m 16,1 km/h (3 Bft) 94,59 %
05.04.2022 08:54 9,6 C 8,9 C 7,2 C 99 % 1006,2 hPa 0,0 l/m 0 min 2 min 39 W/m 12,9 km/h (3 Bft) 95,74 %
05.04.2022 08:56 9,6 C 8,9 C 7,2 C 99 % 1006,3 hPa 0,0 l/m 0 min 2 min 44 W/m 6,4 km/h (2 Bft) 92,59 %
05.04.2022 08:58 9,6 C 8,9 C 7,2 C 99 % 1006,2 hPa 0,2 l/m 0 min 2 min 38 W/m 12,9 km/h (3 Bft) 96,00 %
05.04.2022 09:00 9,6 C 8,9 C 7,2 C 99 % 1006,3 hPa 0,0 l/m 0 min 2 min 32 W/m 16,1 km/h (3 Bft) 97,37 %
05.04.2022 09:02 9,6 C 8,9 C 7,2 C 99 % 1006,3 hPa 0,0 l/m 0 min 0 min 28 W/m 12,9 km/h (3 Bft) 95,92 %
05.04.2022 09:04 9,6 C 8,9 C 7,2 C 99 % 1006,3 hPa 0,0 l/m 0 min 0 min 31 W/m 12,9 km/h (3 Bft) 96,00 %
05.04.2022 09:06 9,6 C 8,9 C 7,2 C 99 % 1006,3 hPa 0,0 l/m 0 min 0 min 41 W/m 16,1 km/h (3 Bft) 95,92 %
05.04.2022 09:08 9,6 C 8,9 C 7,2 C 99 % 1006,3 hPa 0,0 l/m 0 min 0 min 47 W/m 12,9 km/h (3 Bft) 95,74 %
05.04.2022 09:10 9,6 C 8,9 C 7,2 C 99 % 1006,3 hPa 0,0 l/m 0 min 0 min 51 W/m 6,4 km/h (2 Bft) 97,87 %
05.04.2022 09:12 9,6 C 8,9 C 7,2 C 99 % 1006,3 hPa 0,0 l/m 0 min 0 min 57 W/m 16,1 km/h (3 Bft) 97,83 %
05.04.2022 09:14 9,6 C 8,9 C 7,2 C 99 % 1006,3 hPa 0,0 l/m 0 min 0 min 56 W/m 12,9 km/h (3 Bft) 95,74 %
05.04.2022 09:16 9,6 C 8,9 C 7,2 C 99 % 1006,3 hPa 0,0 l/m 0 min 0 min 45 W/m 16,1 km/h (3 Bft) 95,74 %
05.04.2022 09:18 9,6 C 8,9 C 7,2 C 99 % 1006,3 hPa 0,0 l/m 0 min 0 min 40 W/m 22,5 km/h (4 Bft) 97,87 %
05.04.2022 09:20 9,6 C 8,9 C 7,2 C 99 % 1006,3 hPa 0,0 l/m 0 min 0 min 47 W/m 12,9 km/h (3 Bft) 97,87 %
05.04.2022 09:22 9,6 C 8,9 C 7,2 C 99 % 1006,3 hPa 0,0 l/m 0 min 0 min 55 W/m 16,1 km/h (3 Bft) 97,83 %
05.04.2022 09:24 9,6 C 8,9 C 7,2 C 99 % 1006,3 hPa 0,0 l/m 0 min 0 min 53 W/m 16,1 km/h (3 Bft) 97,87 %
05.04.2022 09:26 9,6 C 8,9 C 7,2 C 99 % 1006,3 hPa 0,0 l/m 0 min 0 min 61 W/m 16,1 km/h (3 Bft) 95,74 %
05.04.2022 09:28 9,6 C 8,9 C 7,2 C 99 % 1006,3 hPa 0,0 l/m 0 min 0 min 80 W/m 12,9 km/h (3 Bft) 97,87 %
05.04.2022 09:30 9,6 C 8,9 C 7,2 C 99 % 1006,3 hPa 0,0 l/m 0 min 0 min 81 W/m 12,9 km/h (3 Bft) 95,74 %
05.04.2022 09:32 9,6 C 8,9 C 7,2 C 99 % 1006,3 hPa 0,0 l/m 0 min 0 min 75 W/m 12,9 km/h (3 Bft) 97,87 %
05.04.2022 09:34 9,6 C 9,4 C 7,2 C 99 % 1006,3 hPa 0,0 l/m 0 min 0 min 94 W/m 22,5 km/h (4 Bft) 100,00 %
05.04.2022 09:36 9,7 C 9,4 C 7,2 C 99 % 1006,2 hPa 0,0 l/m 0 min 0 min 93 W/m 19,3 km/h (3 Bft) 100,00 %
05.04.2022 09:38 9,7 C 9,4 C 7,2 C 99 % 1006,2 hPa 0,0 l/m 0 min 0 min 91 W/m 19,3 km/h (3 Bft) 100,00 %
05.04.2022 09:40 9,7 C 9,4 C 7,2 C 99 % 1006,2 hPa 0,0 l/m 0 min 0 min 86 W/m 16,1 km/h (3 Bft) 97,87 %
05.04.2022 09:42 9,7 C 9,4 C 7,2 C 99 % 1006,3 hPa 0,0 l/m 0 min 0 min 81 W/m 16,1 km/h (3 Bft) 100,00 %
05.04.2022 09:44 9,7 C 9,4 C 7,2 C 99 % 1006,2 hPa 0,0 l/m 0 min 0 min 66 W/m 12,9 km/h (3 Bft) 93,62 %
05.04.2022 09:46 9,7 C 9,4 C 7,2 C 99 % 1006,3 hPa 0,0 l/m 0 min 0 min 63 W/m 9,7 km/h (2 Bft) 100,00 %
05.04.2022 09:48 9,7 C 9,4 C 7,2 C 99 % 1006,3 hPa 0,0 l/m 0 min 0 min 58 W/m 12,9 km/h (3 Bft) 95,74 %
05.04.2022 09:50 9,7 C 9,4 C 7,2 C 99 % 1006,2 hPa 0,0 l/m 0 min 0 min 64 W/m 12,9 km/h (3 Bft) 97,87 %
05.04.2022 09:52 9,7 C 9,4 C 7,2 C 99 % 1006,3 hPa 0,0 l/m 0 min 0 min 66 W/m 9,7 km/h (2 Bft) 97,87 %
05.04.2022 09:54 9,7 C 9,4 C 7,2 C 99 % 1006,3 hPa 0,0 l/m 0 min 0 min 68 W/m 12,9 km/h (3 Bft) 100,00 %
05.04.2022 09:56 9,7 C 9,4 C 7,2 C 99 % 1006,3 hPa 0,0 l/m 0 min 0 min 76 W/m 12,9 km/h (3 Bft) 97,87 %
05.04.2022 09:58 9,7 C 9,4 C 7,2 C 99 % 1006,3 hPa 0,0 l/m 0 min 0 min 74 W/m 16,1 km/h (3 Bft) 97,83 %
05.04.2022 10:00 9,7 C 9,4 C 7,2 C 99 % 1006,3 hPa 0,0 l/m 0 min 0 min 66 W/m 12,9 km/h (3 Bft) 97,87 %
05.04.2022 10:02 9,7 C 9,4 C 7,2 C 99 % 1006,3 hPa 0,0 l/m 0 min 0 min 78 W/m 12,9 km/h (3 Bft) 97,87 %
05.04.2022 10:04 9,8 C 9,4 C 7,8 C 99 % 1006,4 hPa 0,0 l/m 0 min 0 min 83 W/m 12,9 km/h (3 Bft) 97,87 %
05.04.2022 10:06 9,8 C 9,4 C 7,8 C 99 % 1006,4 hPa 0,0 l/m 0 min 0 min 69 W/m 12,9 km/h (3 Bft) 97,87 %
05.04.2022 10:08 9,8 C 9,4 C 7,8 C 99 % 1006,3 hPa 0,0 l/m 0 min 0 min 77 W/m 9,7 km/h (2 Bft) 97,87 %
05.04.2022 10:10 9,8 C 9,4 C 7,8 C 99 % 1006,4 hPa 0,0 l/m 0 min 0 min 85 W/m 16,1 km/h (3 Bft) 97,83 %
05.04.2022 10:12 9,8 C 9,4 C 7,8 C 99 % 1006,4 hPa 0,0 l/m 0 min 0 min 102 W/m 16,1 km/h (3 Bft) 97,87 %
05.04.2022 10:14 9,8 C 9,4 C 7,8 C 99 % 1006,4 hPa 0,0 l/m 0 min 0 min 120 W/m 12,9 km/h (3 Bft) 95,74 %
05.04.2022 10:16 9,9 C 9,4 C 7,8 C 99 % 1006,4 hPa 0,0 l/m 0 min 0 min 99 W/m 16,1 km/h (3 Bft) 93,62 %
05.04.2022 10:18 9,9 C 9,4 C 7,8 C 99 % 1006,4 hPa 0,0 l/m 0 min 0 min 89 W/m 12,9 km/h (3 Bft) 97,87 %
05.04.2022 10:20 9,9 C 9,4 C 7,8 C 99 % 1006,4 hPa 0,0 l/m 0 min 0 min 86 W/m 12,9 km/h (3 Bft) 91,30 %
05.04.2022 10:22 9,9 C 9,4 C 7,8 C 99 % 1006,4 hPa 0,0 l/m 0 min 0 min 77 W/m 16,1 km/h (3 Bft) 93,62 %
05.04.2022 10:24 9,9 C 9,4 C 7,8 C 99 % 1006,4 hPa 0,0 l/m 0 min 0 min 77 W/m 6,4 km/h (2 Bft) 95,74 %
05.04.2022 10:26 9,9 C 9,4 C 7,8 C 99 % 1006,4 hPa 0,0 l/m 0 min 0 min 95 W/m 12,9 km/h (3 Bft) 97,87 %
05.04.2022 10:28 10,0 C 10,0 C 7,8 C 99 % 1006,5 hPa 0,0 l/m 0 min 0 min 111 W/m 12,9 km/h (3 Bft) 95,74 %
05.04.2022 10:30 10,0 C 10,0 C 7,8 C 99 % 1006,5 hPa 0,0 l/m 0 min 0 min 118 W/m 16,1 km/h (3 Bft) 97,87 %
05.04.2022 10:32 10,1 C 10,0 C 7,8 C 99 % 1006,5 hPa 0,0 l/m 0 min 0 min 96 W/m 6,4 km/h (2 Bft) 93,48 %
05.04.2022 10:34 10,0 C 10,0 C 7,8 C 99 % 1006,5 hPa 0,0 l/m 0 min 0 min 80 W/m 12,9 km/h (3 Bft) 100,00 %
05.04.2022 10:36 10,1 C 10,0 C 7,8 C 99 % 1006,5 hPa 0,0 l/m 0 min 0 min 63 W/m 12,9 km/h (3 Bft) 100,00 %
05.04.2022 10:38 10,1 C 9,4 C 7,8 C 99 % 1006,6 hPa 0,0 l/m 0 min 0 min 62 W/m 12,9 km/h (3 Bft) 100,00 %
05.04.2022 10:40 10,1 C 10,0 C 7,8 C 99 % 1006,6 hPa 0,0 l/m 0 min 0 min 74 W/m 19,3 km/h (3 Bft) 100,00 %
05.04.2022 10:42 10,1 C 10,0 C 7,8 C 98 % 1006,5 hPa 0,0 l/m 0 min 0 min 82 W/m 22,5 km/h (4 Bft) 100,00 %
05.04.2022 10:44 10,1 C 10,0 C 7,8 C 98 % 1006,6 hPa 0,0 l/m 0 min 0 min 77 W/m 16,1 km/h (3 Bft) 100,00 %
05.04.2022 10:46 10,1 C 9,4 C 7,8 C 98 % 1006,6 hPa 0,0 l/m 0 min 0 min 51 W/m 19,3 km/h (3 Bft) 100,00 %
05.04.2022 10:48 10,1 C 9,4 C 7,8 C 98 % 1006,6 hPa 0,0 l/m 0 min 0 min 62 W/m 19,3 km/h (3 Bft) 100,00 %
05.04.2022 10:50 10,1 C 9,4 C 7,8 C 98 % 1006,6 hPa 0,0 l/m 0 min 0 min 68 W/m 16,1 km/h (3 Bft) 100,00 %
05.04.2022 10:52 10,1 C 9,4 C 7,8 C 98 % 1006,6 hPa 0,0 l/m 0 min 0 min 64 W/m 16,1 km/h (3 Bft) 97,87 %
05.04.2022 10:54 10,1 C 9,4 C 7,8 C 98 % 1006,6 hPa 0,0 l/m 0 min 0 min 82 W/m 19,3 km/h (3 Bft) 97,87 %
05.04.2022 10:56 10,1 C 9,4 C 7,8 C 98 % 1006,6 hPa 0,0 l/m 0 min 0 min 75 W/m 19,3 km/h (3 Bft) 100,00 %
05.04.2022 10:58 10,1 C 9,4 C 7,8 C 98 % 1006,6 hPa 0,0 l/m 0 min 0 min 76 W/m 12,9 km/h (3 Bft) 100,00 %
05.04.2022 11:00 10,1 C 10,0 C 7,8 C 98 % 1006,6 hPa 0,0 l/m 0 min 0 min 89 W/m 12,9 km/h (3 Bft) 95,65 %
05.04.2022 11:02 10,1 C 10,0 C 7,8 C 98 % 1006,6 hPa 0,0 l/m 0 min 0 min 97 W/m 12,9 km/h (3 Bft) 97,87 %
05.04.2022 11:04 10,2 C 10,0 C 7,8 C 98 % 1006,7 hPa 0,0 l/m 0 min 0 min 100 W/m 12,9 km/h (3 Bft) 95,74 %
05.04.2022 11:06 10,1 C 10,0 C 7,8 C 98 % 1006,6 hPa 0,0 l/m 0 min 0 min 79 W/m 12,9 km/h (3 Bft) 97,87 %
05.04.2022 11:08 10,2 C 10,0 C 7,8 C 98 % 1006,6 hPa 0,0 l/m 0 min 0 min 76 W/m 16,1 km/h (3 Bft) 96,55 %
05.04.2022 11:10 10,2 C 10,0 C 7,8 C 98 % 1006,7 hPa 0,0 l/m 0 min 0 min 80 W/m 12,9 km/h (3 Bft) 100,00 %
05.04.2022 11:12 10,2 C 10,0 C 7,8 C 98 % 1006,7 hPa 0,0 l/m 0 min 0 min 105 W/m 16,1 km/h (3 Bft) 97,87 %
05.04.2022 11:14 10,2 C 10,0 C 7,8 C 98 % 1006,6 hPa 0,0 l/m 0 min 0 min 117 W/m 12,9 km/h (3 Bft) 97,87 %
05.04.2022 11:16 10,2 C 10,0 C 7,8 C 98 % 1006,7 hPa 0,0 l/m 0 min 0 min 131 W/m 12,9 km/h (3 Bft) 95,74 %
05.04.2022 11:18 10,2 C 10,0 C 7,8 C 98 % 1006,7 hPa 0,0 l/m 0 min 0 min 128 W/m 16,1 km/h (3 Bft) 97,87 %
05.04.2022 11:20 10,3 C 10,0 C 7,8 C 98 % 1006,7 hPa 0,0 l/m 0 min 0 min 148 W/m 25,7 km/h (4 Bft) 97,87 %
05.04.2022 11:22 10,3 C 10,0 C 7,8 C 98 % 1006,7 hPa 0,0 l/m 0 min 0 min 148 W/m 12,9 km/h (3 Bft) 97,83 %
05.04.2022 11:24 10,3 C 10,0 C 7,8 C 98 % 1006,7 hPa 0,0 l/m 0 min 0 min 122 W/m 16,1 km/h (3 Bft) 97,87 %
05.04.2022 11:26 10,3 C 10,0 C 7,8 C 98 % 1006,7 hPa 0,0 l/m 0 min 0 min 115 W/m 12,9 km/h (3 Bft) 97,87 %
05.04.2022 11:28 10,3 C 10,0 C 7,8 C 98 % 1006,7 hPa 0,0 l/m 0 min 0 min 88 W/m 12,9 km/h (3 Bft) 97,87 %
05.04.2022 11:30 10,3 C 10,0 C 7,8 C 98 % 1006,7 hPa 0,0 l/m 0 min 0 min 60 W/m 6,4 km/h (2 Bft) 97,87 %
05.04.2022 11:32 10,4 C 10,0 C 7,8 C 98 % 1006,7 hPa 0,0 l/m 0 min 0 min 66 W/m 12,9 km/h (3 Bft) 97,87 %
05.04.2022 11:34 10,4 C 10,0 C 7,8 C 98 % 1006,8 hPa 0,0 l/m 0 min 0 min 85 W/m 12,9 km/h (3 Bft) 97,83 %
05.04.2022 11:36 10,4 C 10,0 C 7,8 C 97 % 1006,8 hPa 0,0 l/m 0 min 0 min 86 W/m 19,3 km/h (3 Bft) 96,61 %
05.04.2022 11:38 10,4 C 10,0 C 7,8 C 97 % 1006,7 hPa 0,0 l/m 0 min 2 min 87 W/m 16,1 km/h (3 Bft) 94,29 %
05.04.2022 11:40 10,4 C 10,0 C 7,8 C 97 % 1006,8 hPa 0,0 l/m 0 min 2 min 81 W/m 12,9 km/h (3 Bft) 95,74 %
05.04.2022 11:42 10,4 C 10,0 C 7,8 C 97 % 1006,7 hPa 0,0 l/m 0 min 2 min 86 W/m 16,1 km/h (3 Bft) 95,74 %
05.04.2022 11:44 10,3 C 10,0 C 7,8 C 97 % 1006,7 hPa 0,0 l/m 0 min 2 min 54 W/m 6,4 km/h (2 Bft) 95,74 %
05.04.2022 11:46 10,3 C 10,0 C 7,8 C 97 % 1006,8 hPa 0,2 l/m 0 min 2 min 58 W/m 12,9 km/h (3 Bft) 91,30 %
05.04.2022 11:48 10,3 C 10,0 C 7,8 C 97 % 1006,7 hPa 0,0 l/m 0 min 0 min 60 W/m 16,1 km/h (3 Bft) 85,11 %
05.04.2022 11:50 10,3 C 10,0 C 7,8 C 97 % 1006,7 hPa 0,0 l/m 0 min 2 min 65 W/m 12,9 km/h (3 Bft) 82,98 %
05.04.2022 11:52 10,3 C 10,0 C 7,8 C 97 % 1006,8 hPa 0,0 l/m 0 min 2 min 70 W/m 12,9 km/h (3 Bft) 91,49 %
05.04.2022 11:54 10,3 C 10,0 C 7,8 C 97 % 1006,8 hPa 0,0 l/m 0 min 2 min 70 W/m 6,4 km/h (2 Bft) 78,72 %
05.04.2022 11:56 10,3 C 10,0 C 7,8 C 97 % 1006,8 hPa 0,0 l/m 0 min 2 min 62 W/m 6,4 km/h (2 Bft) 89,36 %
05.04.2022 11:58 10,3 C 10,0 C 7,8 C 97 % 1006,8 hPa 0,0 l/m 0 min 2 min 53 W/m 3,2 km/h (1 Bft) 95,65 %
05.04.2022 12:00 10,3 C 10,0 C 7,8 C 97 % 1006,8 hPa 0,0 l/m 0 min 2 min 70 W/m 12,9 km/h (3 Bft) 93,62 %
05.04.2022 12:02 10,3 C 10,0 C 7,8 C 97 % 1006,8 hPa 0,0 l/m 0 min 0 min 77 W/m 12,9 km/h (3 Bft) 95,74 %
05.04.2022 12:04 10,3 C 10,0 C 7,8 C 97 % 1006,8 hPa 0,0 l/m 0 min 2 min 50 W/m 9,7 km/h (2 Bft) 97,87 %
05.04.2022 12:08 10,3 C 10,0 C 7,8 C 97 % 1006,8 hPa 0,2 l/m 0 min 4 min 129 W/m 22,5 km/h (4 Bft) 95,74 %
05.04.2022 12:10 10,4 C 10,0 C 7,8 C 97 % 1006,8 hPa 0,0 l/m 0 min 0 min 252 W/m 12,9 km/h (3 Bft) 95,65 %
05.04.2022 12:12 10,4 C 10,6 C 8,3 C 97 % 1006,9 hPa 0,0 l/m 0 min 0 min 266 W/m 16,1 km/h (3 Bft) 93,62 %
05.04.2022 12:14 10,6 C 11,1 C 8,3 C 97 % 1006,9 hPa 0,0 l/m 0 min 0 min 315 W/m 12,9 km/h (3 Bft) 95,74 %
05.04.2022 12:16 10,6 C 11,1 C 8,9 C 97 % 1006,8 hPa 0,0 l/m 2 min 0 min 371 W/m 12,9 km/h (3 Bft) 97,87 %
05.04.2022 12:18 10,7 C 11,1 C 8,9 C 98 % 1006,9 hPa 0,0 l/m 0 min 0 min 278 W/m 16,1 km/h (3 Bft) 95,74 %
05.04.2022 12:20 10,8 C 11,1 C 8,3 C 98 % 1006,8 hPa 0,0 l/m 0 min 0 min 231 W/m 16,1 km/h (3 Bft) 95,65 %
05.04.2022 12:22 10,8 C 11,1 C 8,3 C 98 % 1006,9 hPa 0,0 l/m 0 min 0 min 227 W/m 16,1 km/h (3 Bft) 94,64 %
05.04.2022 12:24 10,8 C 11,1 C 8,9 C 98 % 1006,9 hPa 0,0 l/m 0 min 0 min 235 W/m 16,1 km/h (3 Bft) 95,74 %
05.04.2022 12:26 10,8 C 11,1 C 8,3 C 98 % 1006,9 hPa 0,0 l/m 0 min 0 min 268 W/m 22,5 km/h (4 Bft) 100,00 %
05.04.2022 12:28 10,9 C 11,7 C 8,9 C 98 % 1006,9 hPa 0,0 l/m 0 min 0 min 288 W/m 16,1 km/h (3 Bft) 97,87 %
05.04.2022 12:30 10,9 C 11,7 C 8,9 C 98 % 1006,9 hPa 0,0 l/m 0 min 0 min 293 W/m 16,1 km/h (3 Bft) 97,83 %
05.04.2022 12:32 11,0 C 11,7 C 8,9 C 98 % 1006,9 hPa 0,0 l/m 0 min 0 min 271 W/m 12,9 km/h (3 Bft) 100,00 %
05.04.2022 12:34 11,1 C 11,7 C 8,9 C 98 % 1006,9 hPa 0,0 l/m 0 min 0 min 268 W/m 22,5 km/h (4 Bft) 100,00 %
05.04.2022 12:36 11,1 C 11,7 C 8,9 C 98 % 1006,9 hPa 0,0 l/m 0 min 0 min 301 W/m 12,9 km/h (3 Bft) 97,87 %
05.04.2022 12:38 11,2 C 12,2 C 8,9 C 98 % 1006,9 hPa 0,0 l/m 2 min 0 min 364 W/m 16,1 km/h (3 Bft) 100,00 %
05.04.2022 12:40 11,2 C 12,2 C 8,9 C 97 % 1006,9 hPa 0,0 l/m 0 min 0 min 307 W/m 9,7 km/h (2 Bft) 97,14 %
05.04.2022 12:42 11,3 C 12,2 C 8,9 C 97 % 1006,9 hPa 0,0 l/m 0 min 0 min 299 W/m 6,4 km/h (2 Bft) 100,00 %
05.04.2022 12:44 11,3 C 12,8 C 9,4 C 97 % 1006,9 hPa 0,0 l/m 0 min 0 min 264 W/m 9,7 km/h (2 Bft) 100,00 %
05.04.2022 12:46 11,4 C 12,8 C 9,4 C 97 % 1006,8 hPa 0,0 l/m 0 min 0 min 297 W/m 9,7 km/h (2 Bft) 100,00 %
05.04.2022 12:48 11,6 C 12,8 C 9,4 C 97 % 1006,8 hPa 0,0 l/m 2 min 0 min 433 W/m 19,3 km/h (3 Bft) 100,00 %
05.04.2022 12:50 11,6 C 13,3 C 9,4 C 97 % 1006,8 hPa 0,0 l/m 2 min 0 min 463 W/m 19,3 km/h (3 Bft) 100,00 %
05.04.2022 12:52 11,7 C 12,8 C 9,4 C 97 % 1006,8 hPa 0,0 l/m 2 min 0 min 524 W/m 16,1 km/h (3 Bft) 97,87 %
05.04.2022 12:54 11,8 C 12,8 C 9,4 C 97 % 1006,7 hPa 0,0 l/m 2 min 0 min 414 W/m 16,1 km/h (3 Bft) 97,87 %
05.04.2022 12:56 11,8 C 12,8 C 9,4 C 96 % 1006,8 hPa 0,0 l/m 2 min 0 min 389 W/m 22,5 km/h (4 Bft) 100,00 %
05.04.2022 12:58 11,8 C 12,8 C 9,4 C 96 % 1006,7 hPa 0,0 l/m 0 min 0 min 310 W/m 22,5 km/h (4 Bft) 97,87 %
05.04.2022 13:00 11,8 C 12,8 C 9,4 C 96 % 1006,7 hPa 0,0 l/m 2 min 0 min 367 W/m 19,3 km/h (3 Bft) 100,00 %
05.04.2022 13:02 11,9 C 12,8 C 9,4 C 95 % 1006,8 hPa 0,0 l/m 0 min 0 min 313 W/m 22,5 km/h (4 Bft) 100,00 %
05.04.2022 13:04 11,9 C 12,2 C 8,9 C 95 % 1006,7 hPa 0,0 l/m 0 min 0 min 278 W/m 22,5 km/h (4 Bft) 97,87 %
05.04.2022 13:06 11,9 C 12,8 C 8,9 C 95 % 1006,7 hPa 0,0 l/m 0 min 0 min 322 W/m 19,3 km/h (3 Bft) 98,28 %
05.04.2022 13:08 12,0 C 12,8 C 9,4 C 94 % 1006,8 hPa 0,0 l/m 0 min 0 min 337 W/m 19,3 km/h (3 Bft) 97,87 %
05.04.2022 13:10 12,1 C 12,8 C 9,4 C 94 % 1006,8 hPa 0,0 l/m 2 min 0 min 371 W/m 16,1 km/h (3 Bft) 100,00 %
05.04.2022 13:12 12,1 C 13,3 C 9,4 C 94 % 1006,7 hPa 0,0 l/m 2 min 0 min 371 W/m 12,9 km/h (3 Bft) 100,00 %
05.04.2022 13:14 12,2 C 13,9 C 9,4 C 94 % 1006,7 hPa 0,0 l/m 2 min 0 min 371 W/m 22,5 km/h (4 Bft) 100,00 %
05.04.2022 13:16 12,3 C 13,9 C 10,0 C 94 % 1006,7 hPa 0,0 l/m 2 min 0 min 371 W/m 25,7 km/h (4 Bft) 95,74 %
05.04.2022 13:18 12,4 C 13,9 C 9,4 C 93 % 1006,7 hPa 0,0 l/m 2 min 0 min 386 W/m 22,5 km/h (4 Bft) 100,00 %
05.04.2022 13:20 12,5 C 13,3 C 9,4 C 93 % 1006,7 hPa 0,0 l/m 2 min 0 min 438 W/m 25,7 km/h (4 Bft) 100,00 %
05.04.2022 13:22 12,5 C 13,3 C 9,4 C 92 % 1006,8 hPa 0,0 l/m 2 min 0 min 415 W/m 22,5 km/h (4 Bft) 100,00 %
05.04.2022 13:24 12,5 C 12,8 C 9,4 C 92 % 1006,7 hPa 0,0 l/m 0 min 0 min 318 W/m 19,3 km/h (3 Bft) 100,00 %
05.04.2022 13:26 12,4 C 12,8 C 9,4 C 92 % 1006,6 hPa 0,0 l/m 2 min 0 min 380 W/m 19,3 km/h (3 Bft) 100,00 %
05.04.2022 13:28 12,4 C 12,8 C 9,4 C 92 % 1006,7 hPa 0,0 l/m 2 min 0 min 415 W/m 16,1 km/h (3 Bft) 100,00 %
05.04.2022 13:30 12,4 C 13,3 C 9,4 C 92 % 1006,7 hPa 0,0 l/m 2 min 0 min 420 W/m 19,3 km/h (3 Bft) 100,00 %
05.04.2022 13:32 12,4 C 13,3 C 9,4 C 92 % 1006,7 hPa 0,0 l/m 2 min 0 min 364 W/m 22,5 km/h (4 Bft) 100,00 %
05.04.2022 13:34 12,5 C 13,3 C 9,4 C 92 % 1006,7 hPa 0,0 l/m 0 min 0 min 271 W/m 16,1 km/h (3 Bft) 100,00 %
05.04.2022 13:36 12,5 C 13,3 C 9,4 C 92 % 1006,7 hPa 0,0 l/m 2 min 0 min 475 W/m 29,0 km/h (5 Bft) 100,00 %
05.04.2022 13:38 12,4 C 13,3 C 9,4 C 92 % 1006,7 hPa 0,0 l/m 2 min 0 min 384 W/m 19,3 km/h (3 Bft) 100,00 %
05.04.2022 13:40 12,4 C 12,8 C 9,4 C 92 % 1006,7 hPa 0,0 l/m 0 min 0 min 340 W/m 19,3 km/h (3 Bft) 100,00 %
05.04.2022 13:42 12,4 C 12,8 C 8,9 C 92 % 1006,7 hPa 0,0 l/m 0 min 0 min 288 W/m 16,1 km/h (3 Bft) 100,00 %
05.04.2022 13:44 12,3 C 12,8 C 8,9 C 92 % 1006,7 hPa 0,0 l/m 0 min 0 min 221 W/m 19,3 km/h (3 Bft) 100,00 %
05.04.2022 13:46 12,4 C 12,8 C 8,9 C 92 % 1006,7 hPa 0,0 l/m 0 min 0 min 202 W/m 12,9 km/h (3 Bft) 100,00 %
05.04.2022 13:48 12,3 C 12,2 C 8,9 C 92 % 1006,6 hPa 0,0 l/m 0 min 0 min 217 W/m 25,7 km/h (4 Bft) 97,83 %
05.04.2022 13:50 12,3 C 12,2 C 8,9 C 92 % 1006,7 hPa 0,0 l/m 0 min 0 min 191 W/m 16,1 km/h (3 Bft) 97,87 %
05.04.2022 13:52 12,3 C 12,2 C 8,9 C 92 % 1006,7 hPa 0,0 l/m 0 min 0 min 161 W/m 16,1 km/h (3 Bft) 100,00 %
05.04.2022 13:54 12,3 C 12,2 C 8,9 C 92 % 1006,7 hPa 0,0 l/m 0 min 0 min 137 W/m 16,1 km/h (3 Bft) 100,00 %
05.04.2022 13:56 12,3 C 12,2 C 8,9 C 92 % 1006,7 hPa 0,0 l/m 0 min 2 min 120 W/m 9,7 km/h (2 Bft) 100,00 %
05.04.2022 13:58 12,2 C 11,7 C 8,9 C 92 % 1006,7 hPa 0,0 l/m 0 min 2 min 118 W/m 12,9 km/h (3 Bft) 95,74 %
05.04.2022 14:00 12,2 C 11,7 C 8,3 C 92 % 1006,7 hPa 0,0 l/m 0 min 2 min 90 W/m 12,9 km/h (3 Bft) 95,74 %
05.04.2022 14:02 12,1 C 11,7 C 8,3 C 92 % 1006,7 hPa 0,2 l/m 0 min 2 min 76 W/m 12,9 km/h (3 Bft) 95,74 %
05.04.2022 14:04 12,1 C 11,7 C 8,3 C 92 % 1006,7 hPa 0,0 l/m 0 min 2 min 61 W/m 12,9 km/h (3 Bft) 97,87 %
05.04.2022 14:06 12,0 C 11,1 C 8,3 C 92 % 1006,7 hPa 0,2 l/m 0 min 2 min 81 W/m 16,1 km/h (3 Bft) 96,55 %
05.04.2022 14:08 11,9 C 11,1 C 8,3 C 92 % 1006,7 hPa 0,0 l/m 0 min 2 min 106 W/m 19,3 km/h (3 Bft) 97,14 %
05.04.2022 14:10 11,8 C 11,1 C 8,3 C 93 % 1006,7 hPa 0,0 l/m 0 min 2 min 98 W/m 9,7 km/h (2 Bft) 97,87 %
05.04.2022 14:12 11,8 C 11,1 C 8,3 C 93 % 1006,7 hPa 0,2 l/m 0 min 2 min 106 W/m 9,7 km/h (2 Bft) 95,74 %
05.04.2022 14:14 11,8 C 11,1 C 8,3 C 93 % 1006,7 hPa 0,0 l/m 0 min 2 min 88 W/m 6,4 km/h (2 Bft) 95,74 %
05.04.2022 14:16 11,7 C 11,1 C 8,3 C 93 % 1006,8 hPa 0,0 l/m 0 min 2 min 105 W/m 12,9 km/h (3 Bft) 93,62 %
05.04.2022 14:18 11,7 C 11,1 C 8,3 C 93 % 1006,7 hPa 0,0 l/m 0 min 2 min 124 W/m 12,9 km/h (3 Bft) 95,65 %
05.04.2022 14:20 11,6 C 11,1 C 8,3 C 94 % 1006,8 hPa 0,0 l/m 0 min 2 min 92 W/m 12,9 km/h (3 Bft) 95,74 %
05.04.2022 14:22 11,6 C 11,1 C 8,3 C 94 % 1006,7 hPa 0,0 l/m 0 min 2 min 115 W/m 16,1 km/h (3 Bft) 93,62 %
05.04.2022 14:24 11,6 C 10,6 C 8,3 C 94 % 1006,8 hPa 0,0 l/m 0 min 2 min 99 W/m 19,3 km/h (3 Bft) 93,62 %
05.04.2022 14:26 11,6 C 10,6 C 8,3 C 94 % 1006,8 hPa 0,4 l/m 0 min 2 min 80 W/m 19,3 km/h (3 Bft) 93,62 %
05.04.2022 14:28 11,6 C 10,6 C 8,3 C 94 % 1006,8 hPa 0,0 l/m 0 min 2 min 96 W/m 12,9 km/h (3 Bft) 93,48 %
05.04.2022 14:30 11,5 C 10,6 C 8,3 C 95 % 1006,8 hPa 0,0 l/m 0 min 2 min 125 W/m 19,3 km/h (3 Bft) 91,49 %
05.04.2022 14:32 11,5 C 10,6 C 8,3 C 95 % 1006,8 hPa 0,0 l/m 0 min 2 min 132 W/m 9,7 km/h (2 Bft) 91,49 %
05.04.2022 14:34 11,5 C 10,6 C 8,3 C 95 % 1006,8 hPa 0,0 l/m 0 min 2 min 136 W/m 12,9 km/h (3 Bft) 95,74 %
05.04.2022 14:36 11,5 C 10,6 C 8,3 C 95 % 1006,8 hPa 0,2 l/m 0 min 2 min 139 W/m 12,9 km/h (3 Bft) 94,34 %
05.04.2022 14:38 11,6 C 11,1 C 8,3 C 95 % 1006,8 hPa 0,0 l/m 0 min 2 min 139 W/m 12,9 km/h (3 Bft) 95,65 %
05.04.2022 14:40 11,6 C 11,1 C 8,3 C 95 % 1006,8 hPa 0,0 l/m 0 min 2 min 120 W/m 9,7 km/h (2 Bft) 97,56 %
05.04.2022 14:42 11,6 C 11,1 C 8,3 C 95 % 1006,8 hPa 0,0 l/m 0 min 2 min 165 W/m 12,9 km/h (3 Bft) 95,74 %
05.04.2022 14:44 11,6 C 11,7 C 8,3 C 95 % 1006,8 hPa 0,0 l/m 0 min 2 min 265 W/m 9,7 km/h (2 Bft) 95,74 %
05.04.2022 14:46 11,6 C 12,2 C 8,9 C 95 % 1006,8 hPa 0,0 l/m 2 min 0 min 359 W/m 6,4 km/h (2 Bft) 95,74 %
05.04.2022 14:48 11,7 C 12,2 C 8,9 C 96 % 1006,7 hPa 0,0 l/m 2 min 0 min 377 W/m 12,9 km/h (3 Bft) 93,62 %
05.04.2022 14:50 11,8 C 12,2 C 8,9 C 96 % 1006,7 hPa 0,0 l/m 0 min 0 min 326 W/m 6,4 km/h (2 Bft) 95,74 %
05.04.2022 14:52 11,8 C 12,2 C 8,9 C 96 % 1006,6 hPa 0,0 l/m 0 min 0 min 298 W/m 12,9 km/h (3 Bft) 93,48 %
05.04.2022 14:54 11,8 C 12,2 C 8,9 C 96 % 1006,7 hPa 0,0 l/m 2 min 0 min 339 W/m 12,9 km/h (3 Bft) 95,74 %
05.04.2022 14:56 11,9 C 12,8 C 8,9 C 96 % 1006,6 hPa 0,0 l/m 2 min 0 min 417 W/m 16,1 km/h (3 Bft) 95,74 %
05.04.2022 14:58 11,9 C 12,8 C 9,4 C 96 % 1006,6 hPa 0,0 l/m 2 min 0 min 377 W/m 9,7 km/h (2 Bft) 97,87 %
05.04.2022 15:00 12,1 C 12,8 C 9,4 C 96 % 1006,6 hPa 0,0 l/m 2 min 0 min 342 W/m 12,9 km/h (3 Bft) 95,74 %
05.04.2022 15:02 12,1 C 12,2 C 8,9 C 96 % 1006,6 hPa 0,0 l/m 0 min 0 min 251 W/m 12,9 km/h (3 Bft) 97,87 %
05.04.2022 15:04 12,1 C 12,2 C 8,9 C 96 % 1006,6 hPa 0,0 l/m 0 min 0 min 202 W/m 6,4 km/h (2 Bft) 63,83 %
05.04.2022 15:06 12,1 C 12,2 C 8,9 C 96 % 1006,6 hPa 0,0 l/m 0 min 0 min 175 W/m 9,7 km/h (2 Bft) 90,00 %
05.04.2022 15:08 12,1 C 11,7 C 8,9 C 96 % 1006,6 hPa 0,0 l/m 0 min 0 min 228 W/m 12,9 km/h (3 Bft) 100,00 %
05.04.2022 15:10 12,0 C 11,7 C 8,9 C 96 % 1006,6 hPa 0,0 l/m 0 min 0 min 197 W/m 12,9 km/h (3 Bft) 97,87 %
05.04.2022 15:12 12,0 C 11,7 C 8,9 C 95 % 1006,6 hPa 0,0 l/m 0 min 0 min 158 W/m 12,9 km/h (3 Bft) 95,74 %
05.04.2022 15:14 11,9 C 11,7 C 8,9 C 95 % 1006,6 hPa 0,0 l/m 0 min 2 min 161 W/m 19,3 km/h (3 Bft) 100,00 %
05.04.2022 15:16 11,9 C 11,7 C 8,9 C 95 % 1006,6 hPa 0,0 l/m 0 min 2 min 216 W/m 16,1 km/h (3 Bft) 97,87 %
05.04.2022 15:18 11,9 C 12,2 C 8,9 C 95 % 1006,7 hPa 0,0 l/m 0 min 2 min 283 W/m 16,1 km/h (3 Bft) 100,00 %
05.04.2022 15:20 11,9 C 12,2 C 8,9 C 95 % 1006,6 hPa 0,0 l/m 0 min 2 min 237 W/m 12,9 km/h (3 Bft) 100,00 %
05.04.2022 15:22 11,9 C 11,7 C 8,9 C 95 % 1006,6 hPa 0,0 l/m 0 min 2 min 208 W/m 19,3 km/h (3 Bft) 93,62 %
05.04.2022 15:24 11,9 C 12,2 C 8,9 C 95 % 1006,6 hPa 0,0 l/m 0 min 2 min 166 W/m 9,7 km/h (2 Bft) 100,00 %
05.04.2022 15:26 11,9 C 11,7 C 8,9 C 95 % 1006,6 hPa 0,0 l/m 0 min 2 min 159 W/m 19,3 km/h (3 Bft) 97,83 %
05.04.2022 15:28 11,9 C 11,7 C 8,9 C 95 % 1006,6 hPa 0,0 l/m 0 min 2 min 147 W/m 16,1 km/h (3 Bft) 100,00 %
05.04.2022 15:30 11,9 C 11,7 C 8,9 C 95 % 1006,5 hPa 0,0 l/m 0 min 2 min 153 W/m 12,9 km/h (3 Bft) 97,87 %
05.04.2022 15:32 11,8 C 11,7 C 8,3 C 95 % 1006,6 hPa 0,0 l/m 0 min 2 min 111 W/m 19,3 km/h (3 Bft) 100,00 %
05.04.2022 15:34 11,8 C 11,7 C 8,3 C 95 % 1006,6 hPa 0,0 l/m 0 min 2 min 87 W/m 19,3 km/h (3 Bft) 97,87 %
05.04.2022 15:36 11,7 C 11,1 C 8,3 C 95 % 1006,6 hPa 0,2 l/m 0 min 2 min 87 W/m 16,1 km/h (3 Bft) 100,00 %
05.04.2022 15:38 11,7 C 11,1 C 8,3 C 95 % 1006,6 hPa 0,0 l/m 0 min 2 min 92 W/m 19,3 km/h (3 Bft) 100,00 %
05.04.2022 15:40 11,6 C 11,1 C 8,3 C 95 % 1006,7 hPa 0,0 l/m 0 min 2 min 87 W/m 12,9 km/h (3 Bft) 100,00 %
05.04.2022 15:42 11,6 C 11,1 C 8,3 C 95 % 1006,6 hPa 0,0 l/m 0 min 2 min 78 W/m 12,9 km/h (3 Bft) 100,00 %
05.04.2022 15:44 11,6 C 11,1 C 8,3 C 95 % 1006,6 hPa 0,0 l/m 0 min 2 min 102 W/m 16,1 km/h (3 Bft) 100,00 %
05.04.2022 15:46 11,5 C 11,1 C 8,3 C 94 % 1006,6 hPa 0,0 l/m 0 min 2 min 128 W/m 16,1 km/h (3 Bft) 100,00 %
05.04.2022 15:48 11,5 C 11,1 C 8,3 C 95 % 1006,6 hPa 0,0 l/m 0 min 0 min 172 W/m 16,1 km/h (3 Bft) 97,87 %
05.04.2022 15:50 11,6 C 11,7 C 8,3 C 95 % 1006,6 hPa 0,0 l/m 0 min 0 min 220 W/m 16,1 km/h (3 Bft) 97,83 %
05.04.2022 15:52 11,6 C 11,7 C 8,3 C 95 % 1006,5 hPa 0,0 l/m 0 min 0 min 225 W/m 12,9 km/h (3 Bft) 95,74 %
05.04.2022 15:54 11,6 C 11,7 C 8,3 C 95 % 1006,5 hPa 0,0 l/m 0 min 0 min 198 W/m 6,4 km/h (2 Bft) 97,87 %
05.04.2022 15:56 11,7 C 11,7 C 8,3 C 95 % 1006,5 hPa 0,0 l/m 0 min 0 min 185 W/m 19,3 km/h (3 Bft) 97,87 %
05.04.2022 15:58 11,7 C 11,7 C 8,3 C 95 % 1006,5 hPa 0,0 l/m 0 min 0 min 171 W/m 12,9 km/h (3 Bft) 97,87 %
05.04.2022 16:00 11,7 C 11,7 C 8,3 C 95 % 1006,4 hPa 0,0 l/m 0 min 0 min 162 W/m 16,1 km/h (3 Bft) 97,87 %
05.04.2022 16:02 11,7 C 11,7 C 8,3 C 95 % 1006,4 hPa 0,0 l/m 0 min 0 min 152 W/m 12,9 km/h (3 Bft) 97,83 %
05.04.2022 16:04 11,8 C 12,2 C 8,3 C 95 % 1006,4 hPa 0,0 l/m 0 min 0 min 161 W/m 6,4 km/h (2 Bft) 97,87 %
05.04.2022 16:06 11,8 C 12,2 C 8,3 C 95 % 1006,4 hPa 0,0 l/m 0 min 0 min 204 W/m 22,5 km/h (4 Bft) 98,11 %
05.04.2022 16:08 11,8 C 12,8 C 8,9 C 94 % 1006,3 hPa 0,0 l/m 2 min 0 min 288 W/m 12,9 km/h (3 Bft) 97,87 %
05.04.2022 16:10 11,9 C 12,8 C 8,3 C 94 % 1006,3 hPa 0,0 l/m 0 min 0 min 238 W/m 22,5 km/h (4 Bft) 97,87 %
05.04.2022 16:12 11,9 C 12,2 C 8,3 C 94 % 1006,3 hPa 0,0 l/m 0 min 0 min 204 W/m 19,3 km/h (3 Bft) 97,83 %
05.04.2022 16:14 11,9 C 12,2 C 8,3 C 94 % 1006,3 hPa 0,0 l/m 0 min 0 min 167 W/m 16,1 km/h (3 Bft) 97,87 %
05.04.2022 16:16 12,0 C 12,2 C 8,3 C 93 % 1006,3 hPa 0,0 l/m 0 min 0 min 154 W/m 19,3 km/h (3 Bft) 97,56 %
05.04.2022 16:18 12,0 C 12,2 C 8,3 C 93 % 1006,2 hPa 0,0 l/m 0 min 0 min 162 W/m 22,5 km/h (4 Bft) 97,87 %
05.04.2022 16:20 12,0 C 12,2 C 8,3 C 93 % 1006,3 hPa 0,0 l/m 0 min 0 min 180 W/m 16,1 km/h (3 Bft) 97,87 %
05.04.2022 16:22 12,0 C 12,2 C 8,3 C 93 % 1006,2 hPa 0,0 l/m 0 min 0 min 154 W/m 22,5 km/h (4 Bft) 97,87 %
05.04.2022 16:24 12,0 C 11,7 C 8,3 C 92 % 1006,3 hPa 0,0 l/m 0 min 0 min 134 W/m 12,9 km/h (3 Bft) 97,83 %
05.04.2022 16:26 11,9 C 11,7 C 8,3 C 92 % 1006,2 hPa 0,0 l/m 0 min 0 min 104 W/m 16,1 km/h (3 Bft) 97,87 %
05.04.2022 16:28 11,9 C 11,7 C 8,3 C 92 % 1006,3 hPa 0,0 l/m 0 min 0 min 102 W/m 22,5 km/h (4 Bft) 97,87 %
05.04.2022 16:30 12,0 C 11,7 C 8,3 C 92 % 1006,3 hPa 0,0 l/m 0 min 0 min 111 W/m 12,9 km/h (3 Bft) 97,87 %
05.04.2022 16:32 12,0 C 11,7 C 8,3 C 92 % 1006,2 hPa 0,0 l/m 0 min 0 min 112 W/m 19,3 km/h (3 Bft) 100,00 %
05.04.2022 16:34 11,9 C 11,7 C 8,3 C 91 % 1006,3 hPa 0,0 l/m 0 min 0 min 110 W/m 22,5 km/h (4 Bft) 100,00 %
05.04.2022 16:36 11,9 C 12,2 C 8,3 C 91 % 1006,3 hPa 0,0 l/m 0 min 0 min 141 W/m 16,1 km/h (3 Bft) 100,00 %
05.04.2022 16:38 12,0 C 12,2 C 8,3 C 91 % 1006,3 hPa 0,0 l/m 0 min 0 min 195 W/m 16,1 km/h (3 Bft) 100,00 %
05.04.2022 16:40 12,0 C 12,2 C 8,3 C 91 % 1006,3 hPa 0,0 l/m 0 min 0 min 175 W/m 12,9 km/h (3 Bft) 97,87 %
05.04.2022 16:42 12,1 C 12,2 C 8,3 C 91 % 1006,3 hPa 0,0 l/m 0 min 0 min 128 W/m 12,9 km/h (3 Bft) 100,00 %
05.04.2022 16:44 12,1 C 12,2 C 8,3 C 91 % 1006,3 hPa 0,0 l/m 0 min 0 min 116 W/m 29,0 km/h (5 Bft) 100,00 %
05.04.2022 16:46 12,1 C 12,2 C 8,3 C 91 % 1006,3 hPa 0,0 l/m 0 min 0 min 104 W/m 25,7 km/h (4 Bft) 100,00 %
05.04.2022 16:48 12,1 C 11,7 C 8,3 C 91 % 1006,3 hPa 0,0 l/m 0 min 0 min 69 W/m 22,5 km/h (4 Bft) 100,00 %
05.04.2022 16:50 12,1 C 11,7 C 7,8 C 91 % 1006,3 hPa 0,0 l/m 0 min 0 min 44 W/m 16,1 km/h (3 Bft) 100,00 %
05.04.2022 16:52 12,1 C 11,7 C 7,8 C 90 % 1006,2 hPa 0,0 l/m 0 min 0 min 46 W/m 9,7 km/h (2 Bft) 95,74 %
05.04.2022 16:54 12,1 C 11,7 C 7,8 C 91 % 1006,3 hPa 0,0 l/m 0 min 0 min 44 W/m 16,1 km/h (3 Bft) 100,00 %
05.04.2022 16:56 12,1 C 11,7 C 7,8 C 90 % 1006,3 hPa 0,0 l/m 0 min 0 min 76 W/m 12,9 km/h (3 Bft) 100,00 %
05.04.2022 16:58 12,1 C 11,7 C 7,8 C 90 % 1006,3 hPa 0,0 l/m 0 min 0 min 91 W/m 12,9 km/h (3 Bft) 100,00 %
05.04.2022 17:00 12,1 C 11,7 C 7,8 C 91 % 1006,3 hPa 0,0 l/m 0 min 0 min 89 W/m 16,1 km/h (3 Bft) 100,00 %
05.04.2022 17:02 12,1 C 11,7 C 7,8 C 91 % 1006,2 hPa 0,0 l/m 0 min 0 min 65 W/m 16,1 km/h (3 Bft) 97,87 %
05.04.2022 17:04 12,0 C 11,7 C 7,8 C 90 % 1006,2 hPa 0,0 l/m 0 min 0 min 69 W/m 22,5 km/h (4 Bft) 97,87 %
05.04.2022 17:06 12,0 C 11,7 C 7,8 C 90 % 1006,3 hPa 0,0 l/m 0 min 0 min 76 W/m 16,1 km/h (3 Bft) 96,23 %
05.04.2022 17:08 12,0 C 11,7 C 7,8 C 90 % 1006,3 hPa 0,0 l/m 0 min 0 min 81 W/m 12,9 km/h (3 Bft) 97,87 %
05.04.2022 17:10 11,9 C 11,7 C 7,8 C 90 % 1006,3 hPa 0,0 l/m 0 min 0 min 73 W/m 19,3 km/h (3 Bft) 97,83 %
05.04.2022 17:12 11,9 C 11,7 C 7,8 C 90 % 1006,2 hPa 0,0 l/m 0 min 0 min 55 W/m 12,9 km/h (3 Bft) 97,87 %
05.04.2022 17:14 11,9 C 11,1 C 7,8 C 90 % 1006,3 hPa 0,0 l/m 0 min 2 min 54 W/m 19,3 km/h (3 Bft) 95,74 %
05.04.2022 17:16 11,9 C 11,1 C 7,8 C 90 % 1006,2 hPa 0,0 l/m 0 min 2 min 59 W/m 12,9 km/h (3 Bft) 100,00 %
05.04.2022 17:18 11,8 C 11,1 C 7,8 C 91 % 1006,3 hPa 0,0 l/m 0 min 2 min 71 W/m 16,1 km/h (3 Bft) 93,62 %
05.04.2022 17:20 11,8 C 11,1 C 7,8 C 91 % 1006,3 hPa 0,0 l/m 0 min 2 min 74 W/m 22,5 km/h (4 Bft) 95,74 %
05.04.2022 17:22 11,7 C 11,1 C 7,8 C 91 % 1006,3 hPa 0,0 l/m 0 min 2 min 94 W/m 22,5 km/h (4 Bft) 95,74 %
05.04.2022 17:24 11,7 C 11,1 C 7,8 C 92 % 1006,3 hPa 0,0 l/m 0 min 0 min 96 W/m 19,3 km/h (3 Bft) 91,30 %
05.04.2022 17:26 11,7 C 11,1 C 7,8 C 92 % 1006,3 hPa 0,0 l/m 0 min 2 min 57 W/m 12,9 km/h (3 Bft) 93,62 %
05.04.2022 17:28 11,7 C 11,1 C 7,8 C 92 % 1006,3 hPa 0,0 l/m 0 min 2 min 46 W/m 16,1 km/h (3 Bft) 47,37 %
05.04.2022 17:30 11,6 C 11,1 C 7,8 C 93 % 1006,4 hPa 0,0 l/m 0 min 2 min 40 W/m 25,7 km/h (4 Bft) 97,87 %
05.04.2022 17:32 11,6 C 10,6 C 7,8 C 93 % 1006,3 hPa 0,0 l/m 0 min 0 min 43 W/m 22,5 km/h (4 Bft) 95,74 %
05.04.2022 17:34 11,4 C 10,6 C 7,8 C 93 % 1006,4 hPa 0,0 l/m 0 min 0 min 39 W/m 35,4 km/h (5 Bft) 95,65 %
05.04.2022 17:36 11,4 C 10,6 C 7,8 C 93 % 1006,4 hPa 0,0 l/m 0 min 0 min 32 W/m 19,3 km/h (3 Bft) 96,23 %
05.04.2022 17:38 11,4 C 10,6 C 7,8 C 93 % 1006,4 hPa 0,0 l/m 0 min 2 min 35 W/m 19,3 km/h (3 Bft) 93,62 %
05.04.2022 17:40 11,3 C 10,6 C 7,8 C 93 % 1006,4 hPa 0,0 l/m 0 min 0 min 39 W/m 9,7 km/h (2 Bft) 96,00 %
05.04.2022 17:42 11,3 C 10,6 C 7,8 C 93 % 1006,4 hPa 0,0 l/m 0 min 2 min 40 W/m 16,1 km/h (3 Bft) 95,74 %
05.04.2022 17:44 11,3 C 10,6 C 7,8 C 94 % 1006,5 hPa 0,0 l/m 0 min 2 min 41 W/m 16,1 km/h (3 Bft) 91,30 %
05.04.2022 17:46 11,3 C 10,6 C 7,8 C 94 % 1006,4 hPa 0,0 l/m 0 min 0 min 47 W/m 19,3 km/h (3 Bft) 95,74 %
05.04.2022 17:48 11,2 C 10,6 C 7,8 C 94 % 1006,4 hPa 0,0 l/m 0 min 2 min 43 W/m 19,3 km/h (3 Bft) 97,87 %
05.04.2022 17:50 11,2 C 10,6 C 7,8 C 94 % 1006,5 hPa 0,0 l/m 0 min 2 min 40 W/m 16,1 km/h (3 Bft) 97,87 %
05.04.2022 17:52 11,2 C 10,6 C 7,2 C 94 % 1006,4 hPa 0,0 l/m 0 min 2 min 47 W/m 19,3 km/h (3 Bft) 95,74 %
05.04.2022 17:54 11,2 C 10,6 C 7,2 C 94 % 1006,4 hPa 0,0 l/m 0 min 0 min 57 W/m 22,5 km/h (4 Bft) 93,62 %
05.04.2022 17:56 11,2 C 10,6 C 7,2 C 94 % 1006,4 hPa 0,0 l/m 0 min 0 min 53 W/m 16,1 km/h (3 Bft) 95,65 %
05.04.2022 17:58 11,1 C 10,6 C 7,2 C 94 % 1006,4 hPa 0,0 l/m 0 min 0 min 62 W/m 16,1 km/h (3 Bft) 95,74 %
05.04.2022 18:00 11,2 C 10,6 C 7,8 C 94 % 1006,5 hPa 0,0 l/m 0 min 0 min 66 W/m 12,9 km/h (3 Bft) 93,62 %
05.04.2022 18:02 11,2 C 10,6 C 7,8 C 94 % 1006,5 hPa 0,0 l/m 0 min 0 min 77 W/m 12,9 km/h (3 Bft) 95,74 %
05.04.2022 18:04 11,2 C 10,6 C 7,8 C 94 % 1006,5 hPa 0,0 l/m 0 min 0 min 70 W/m 19,3 km/h (3 Bft) 93,62 %
05.04.2022 18:08 11,2 C 10,6 C 7,8 C 94 % 1006,4 hPa 0,0 l/m 0 min 0 min 68 W/m 16,1 km/h (3 Bft) 95,70 %
05.04.2022 18:10 11,2 C 10,6 C 7,8 C 94 % 1006,4 hPa 0,0 l/m 0 min 0 min 71 W/m 16,1 km/h (3 Bft) 93,62 %
05.04.2022 18:12 11,2 C 10,6 C 7,8 C 94 % 1006,4 hPa 0,0 l/m 0 min 0 min 60 W/m 6,4 km/h (2 Bft) 93,62 %
05.04.2022 18:14 11,2 C 10,6 C 7,8 C 94 % 1006,4 hPa 0,0 l/m 0 min 0 min 54 W/m 16,1 km/h (3 Bft) 95,74 %
05.04.2022 18:16 11,2 C 10,6 C 7,8 C 94 % 1006,3 hPa 0,0 l/m 0 min 0 min 66 W/m 12,9 km/h (3 Bft) 97,87 %
05.04.2022 18:18 11,2 C 10,6 C 7,8 C 94 % 1006,3 hPa 0,0 l/m 0 min 0 min 74 W/m 12,9 km/h (3 Bft) 97,83 %
05.04.2022 18:20 11,2 C 11,1 C 7,8 C 94 % 1006,3 hPa 0,0 l/m 0 min 0 min 69 W/m 16,1 km/h (3 Bft) 95,74 %
05.04.2022 18:22 11,2 C 11,1 C 7,8 C 94 % 1006,3 hPa 0,0 l/m 0 min 0 min 68 W/m 12,9 km/h (3 Bft) 97,87 %
05.04.2022 18:24 11,2 C 11,1 C 7,8 C 94 % 1006,3 hPa 0,0 l/m 0 min 0 min 89 W/m 6,4 km/h (2 Bft) 100,00 %
05.04.2022 18:26 11,3 C 11,1 C 7,8 C 94 % 1006,3 hPa 0,0 l/m 0 min 0 min 89 W/m 19,3 km/h (3 Bft) 100,00 %
05.04.2022 18:28 11,3 C 11,1 C 8,3 C 94 % 1006,3 hPa 0,0 l/m 0 min 0 min 92 W/m 6,4 km/h (2 Bft) 100,00 %
05.04.2022 18:30 11,3 C 11,7 C 8,3 C 94 % 1006,2 hPa 0,0 l/m 0 min 0 min 92 W/m 12,9 km/h (3 Bft) 100,00 %
05.04.2022 18:32 11,4 C 11,7 C 8,3 C 94 % 1006,3 hPa 0,0 l/m 0 min 0 min 98 W/m 12,9 km/h (3 Bft) 100,00 %
05.04.2022 18:34 11,4 C 11,7 C 8,3 C 94 % 1006,2 hPa 0,0 l/m 0 min 0 min 83 W/m 9,7 km/h (2 Bft) 100,00 %
05.04.2022 18:36 11,5 C 11,7 C 8,3 C 94 % 1006,2 hPa 0,0 l/m 0 min 0 min 55 W/m 12,9 km/h (3 Bft) 100,00 %
05.04.2022 18:38 11,6 C 11,7 C 8,3 C 94 % 1006,2 hPa 0,0 l/m 0 min 0 min 37 W/m 12,9 km/h (3 Bft) 100,00 %
05.04.2022 18:40 11,6 C 11,1 C 8,3 C 94 % 1006,2 hPa 0,0 l/m 0 min 0 min 25 W/m 12,9 km/h (3 Bft) 100,00 %
05.04.2022 18:42 11,6 C 11,7 C 8,3 C 94 % 1006,2 hPa 0,0 l/m 0 min 0 min 20 W/m 6,4 km/h (2 Bft) 100,00 %
05.04.2022 18:44 11,6 C 11,1 C 8,3 C 94 % 1006,1 hPa 0,0 l/m 0 min 0 min 26 W/m 16,1 km/h (3 Bft) 100,00 %
05.04.2022 18:46 11,7 C 11,1 C 8,3 C 94 % 1006,2 hPa 0,0 l/m 0 min 0 min 22 W/m 3,2 km/h (1 Bft) 100,00 %
05.04.2022 18:48 11,7 C 11,1 C 8,3 C 94 % 1006,2 hPa 0,0 l/m 0 min 0 min 19 W/m 6,4 km/h (2 Bft) 100,00 %
05.04.2022 18:50 11,7 C 11,1 C 8,3 C 93 % 1006,1 hPa 0,0 l/m 0 min 0 min 19 W/m 6,4 km/h (2 Bft) 100,00 %
05.04.2022 18:52 11,6 C 11,1 C 8,3 C 93 % 1006,1 hPa 0,0 l/m 0 min 0 min 23 W/m 16,1 km/h (3 Bft) 100,00 %
05.04.2022 18:54 11,6 C 11,1 C 8,3 C 93 % 1006,1 hPa 0,0 l/m 0 min 0 min 24 W/m 16,1 km/h (3 Bft) 100,00 %
05.04.2022 18:56 11,6 C 11,1 C 8,3 C 93 % 1006,1 hPa 0,0 l/m 0 min 0 min 21 W/m 12,9 km/h (3 Bft) 100,00 %
05.04.2022 18:58 11,6 C 11,1 C 8,3 C 93 % 1006,1 hPa 0,0 l/m 0 min 0 min 20 W/m 12,9 km/h (3 Bft) 100,00 %
05.04.2022 19:00 11,6 C 11,1 C 8,3 C 93 % 1006,0 hPa 0,0 l/m 0 min 0 min 24 W/m 12,9 km/h (3 Bft) 100,00 %
05.04.2022 19:02 11,6 C 11,1 C 8,3 C 93 % 1006,0 hPa 0,0 l/m 0 min 0 min 34 W/m 9,7 km/h (2 Bft) 100,00 %
05.04.2022 19:04 11,6 C 11,1 C 8,3 C 93 % 1006,0 hPa 0,0 l/m 0 min 0 min 35 W/m 9,7 km/h (2 Bft) 100,00 %
05.04.2022 19:06 11,6 C 11,1 C 8,3 C 93 % 1006,1 hPa 0,0 l/m 0 min 0 min 23 W/m 6,4 km/h (2 Bft) 100,00 %
05.04.2022 19:08 11,6 C 11,1 C 8,3 C 93 % 1006,1 hPa 0,0 l/m 0 min 0 min 18 W/m 12,9 km/h (3 Bft) 100,00 %
05.04.2022 19:10 11,6 C 11,1 C 8,3 C 92 % 1006,1 hPa 0,0 l/m 0 min 0 min 16 W/m 12,9 km/h (3 Bft) 100,00 %
05.04.2022 19:12 11,6 C 11,1 C 8,3 C 92 % 1006,2 hPa 0,0 l/m 0 min 0 min 18 W/m 9,7 km/h (2 Bft) 100,00 %
05.04.2022 19:14 11,6 C 11,1 C 8,3 C 92 % 1006,1 hPa 0,0 l/m 0 min 0 min 23 W/m 6,4 km/h (2 Bft) 100,00 %
05.04.2022 19:16 11,6 C 11,1 C 8,3 C 92 % 1006,0 hPa 0,0 l/m 0 min 0 min 29 W/m 12,9 km/h (3 Bft) 100,00 %
05.04.2022 19:18 11,6 C 11,1 C 8,3 C 92 % 1006,1 hPa 0,0 l/m 0 min 0 min 27 W/m 6,4 km/h (2 Bft) 100,00 %
05.04.2022 19:20 11,6 C 11,1 C 8,3 C 92 % 1006,1 hPa 0,0 l/m 0 min 0 min 22 W/m 6,4 km/h (2 Bft) 100,00 %
05.04.2022 19:22 11,6 C 11,1 C 8,3 C 92 % 1006,1 hPa 0,0 l/m 0 min 0 min 20 W/m 16,1 km/h (3 Bft) 100,00 %
05.04.2022 19:24 11,6 C 11,1 C 8,3 C 92 % 1006,0 hPa 0,0 l/m 0 min 0 min 25 W/m 9,7 km/h (2 Bft) 100,00 %
05.04.2022 19:26 11,6 C 11,1 C 8,3 C 92 % 1006,0 hPa 0,0 l/m 0 min 0 min 27 W/m 6,4 km/h (2 Bft) 100,00 %
05.04.2022 19:28 11,6 C 11,1 C 8,3 C 92 % 1006,0 hPa 0,0 l/m 0 min 0 min 19 W/m 16,1 km/h (3 Bft) 95,65 %
05.04.2022 19:30 11,6 C 11,1 C 8,3 C 92 % 1006,0 hPa 0,0 l/m 0 min 0 min 16 W/m 12,9 km/h (3 Bft) 95,74 %
05.04.2022 19:32 11,6 C 11,1 C 8,3 C 92 % 1005,9 hPa 0,0 l/m 0 min 0 min 16 W/m 9,7 km/h (2 Bft) 100,00 %
05.04.2022 19:34 11,6 C 11,1 C 8,3 C 92 % 1006,0 hPa 0,0 l/m 0 min 0 min 12 W/m 19,3 km/h (3 Bft) 100,00 %
05.04.2022 19:36 11,6 C 11,1 C 8,3 C 92 % 1006,0 hPa 0,0 l/m 0 min 0 min 12 W/m 12,9 km/h (3 Bft) 97,87 %
05.04.2022 19:38 11,6 C 11,1 C 8,3 C 92 % 1006,0 hPa 0,0 l/m 0 min 0 min 11 W/m 9,7 km/h (2 Bft) 97,87 %
05.04.2022 19:40 11,6 C 11,1 C 8,3 C 92 % 1005,9 hPa 0,0 l/m 0 min 0 min 11 W/m 12,9 km/h (3 Bft) 55,56 %
05.04.2022 19:42 11,6 C 11,1 C 8,3 C 92 % 1005,9 hPa 0,0 l/m 0 min 0 min 10 W/m 16,1 km/h (3 Bft) 100,00 %
05.04.2022 19:44 11,6 C 11,1 C 8,3 C 92 % 1005,9 hPa 0,0 l/m 0 min 0 min 7 W/m 6,4 km/h (2 Bft) 100,00 %
05.04.2022 19:46 11,6 C 11,1 C 8,3 C 92 % 1005,9 hPa 0,0 l/m 0 min 0 min 5 W/m 6,4 km/h (2 Bft) 95,74 %
05.04.2022 19:48 11,6 C 11,1 C 8,3 C 92 % 1005,9 hPa 0,0 l/m 0 min 0 min 5 W/m 6,4 km/h (2 Bft) 93,62 %
05.04.2022 19:50 11,5 C 11,1 C 8,3 C 91 % 1005,9 hPa 0,0 l/m 0 min 0 min 5 W/m 12,9 km/h (3 Bft) 97,87 %
05.04.2022 19:52 11,5 C 11,1 C 8,3 C 91 % 1005,9 hPa 0,0 l/m 0 min 0 min 2 W/m 12,9 km/h (3 Bft) 95,65 %
05.04.2022 19:54 11,5 C 11,1 C 7,8 C 91 % 1005,9 hPa 0,0 l/m 0 min 0 min 0 W/m 9,7 km/h (2 Bft) 95,74 %
05.04.2022 19:56 11,5 C 10,6 C 7,8 C 91 % 1005,8 hPa 0,0 l/m 0 min 0 min 0 W/m 6,4 km/h (2 Bft) 95,74 %
05.04.2022 19:58 11,5 C 10,6 C 7,8 C 91 % 1005,8 hPa 0,0 l/m 0 min 0 min 0 W/m 12,9 km/h (3 Bft) 93,62 %
05.04.2022 20:00 11,5 C 10,6 C 7,8 C 91 % 1005,8 hPa 0,0 l/m 0 min 2 min 0 W/m 6,4 km/h (2 Bft) 95,74 %
05.04.2022 20:02 11,5 C 10,6 C 7,8 C 92 % 1005,9 hPa 0,0 l/m 0 min 2 min 0 W/m 6,4 km/h (2 Bft) 95,65 %
05.04.2022 20:04 11,4 C 10,6 C 7,8 C 92 % 1005,9 hPa 0,0 l/m 0 min 2 min 0 W/m 6,4 km/h (2 Bft) 95,74 %
05.04.2022 20:06 11,4 C 10,6 C 7,8 C 92 % 1005,9 hPa 0,2 l/m 0 min 2 min 0 W/m 12,9 km/h (3 Bft) 95,74 %
05.04.2022 20:08 11,4 C 10,6 C 7,2 C 92 % 1006,0 hPa 0,0 l/m 0 min 2 min 0 W/m 6,4 km/h (2 Bft) 95,74 %
05.04.2022 20:10 11,4 C 10,6 C 7,2 C 92 % 1005,9 hPa 0,0 l/m 0 min 2 min 0 W/m 6,4 km/h (2 Bft) 95,74 %
05.04.2022 20:12 11,3 C 10,6 C 7,2 C 92 % 1005,8 hPa 0,0 l/m 0 min 2 min 0 W/m 6,4 km/h (2 Bft) 91,49 %
05.04.2022 20:14 11,3 C 10,0 C 7,2 C 92 % 1005,8 hPa 0,0 l/m 0 min 0 min 0 W/m 3,2 km/h (1 Bft) 95,65 %
05.04.2022 20:16 11,3 C 10,0 C 7,2 C 93 % 1005,8 hPa 0,0 l/m 0 min 2 min 0 W/m 6,4 km/h (2 Bft) 93,62 %
05.04.2022 20:18 11,3 C 10,0 C 7,2 C 93 % 1005,9 hPa 0,0 l/m 0 min 2 min 0 W/m 6,4 km/h (2 Bft) 97,87 %
05.04.2022 20:20 11,2 C 10,0 C 7,2 C 93 % 1005,9 hPa 0,4 l/m 0 min 2 min 0 W/m 9,7 km/h (2 Bft) 95,74 %
05.04.2022 20:22 11,1 C 10,0 C 7,2 C 93 % 1005,8 hPa 0,4 l/m 0 min 2 min 0 W/m 9,7 km/h (2 Bft) 95,74 %
05.04.2022 20:24 11,1 C 9,4 C 7,2 C 93 % 1005,8 hPa 0,4 l/m 0 min 2 min 0 W/m 9,7 km/h (2 Bft) 95,74 %
05.04.2022 20:26 11,0 C 9,4 C 7,2 C 93 % 1005,8 hPa 0,4 l/m 0 min 2 min 0 W/m 12,9 km/h (3 Bft) 95,65 %
05.04.2022 20:28 10,9 C 9,4 C 7,2 C 93 % 1005,9 hPa 0,4 l/m 0 min 2 min 0 W/m 6,4 km/h (2 Bft) 95,74 %
05.04.2022 20:30 10,9 C 9,4 C 7,2 C 93 % 1005,9 hPa 0,2 l/m 0 min 2 min 0 W/m 3,2 km/h (1 Bft) 93,62 %
05.04.2022 20:32 10,9 C 9,4 C 7,2 C 94 % 1005,9 hPa 0,0 l/m 0 min 2 min 0 W/m 6,4 km/h (2 Bft) 95,74 %
05.04.2022 20:34 10,8 C 9,4 C 7,2 C 94 % 1005,8 hPa 0,0 l/m 0 min 2 min 0 W/m 6,4 km/h (2 Bft) 93,62 %
05.04.2022 20:36 10,8 C 9,4 C 7,2 C 94 % 1005,9 hPa 0,0 l/m 0 min 0 min 0 W/m 6,4 km/h (2 Bft) 95,74 %
05.04.2022 20:38 10,8 C 9,4 C 7,2 C 94 % 1005,8 hPa 0,0 l/m 0 min 2 min 0 W/m 6,4 km/h (2 Bft) 97,83 %
05.04.2022 20:40 10,8 C 9,4 C 7,2 C 94 % 1005,9 hPa 0,0 l/m 0 min 0 min 0 W/m 3,2 km/h (1 Bft) 97,87 %
05.04.2022 20:42 10,7 C 9,4 C 7,2 C 95 % 1005,9 hPa 0,0 l/m 0 min 0 min 0 W/m 6,4 km/h (2 Bft) 91,49 %
05.04.2022 20:44 10,7 C 9,4 C 7,2 C 94 % 1005,8 hPa 0,2 l/m 0 min 0 min 0 W/m 3,2 km/h (1 Bft) 89,36 %
05.04.2022 20:46 10,7 C 9,4 C 7,2 C 95 % 1005,9 hPa 0,0 l/m 0 min 0 min 0 W/m 6,4 km/h (2 Bft) 97,87 %
05.04.2022 20:48 10,7 C 9,4 C 7,2 C 95 % 1006,0 hPa 0,0 l/m 0 min 2 min 0 W/m 6,4 km/h (2 Bft) 93,62 %
05.04.2022 20:50 10,7 C 9,4 C 7,2 C 95 % 1005,9 hPa 0,0 l/m 0 min 2 min 0 W/m 6,4 km/h (2 Bft) 97,83 %
05.04.2022 20:52 10,7 C 9,4 C 7,2 C 95 % 1006,1 hPa 0,0 l/m 0 min 2 min 0 W/m 12,9 km/h (3 Bft) 97,87 %
05.04.2022 20:54 10,7 C 9,4 C 7,2 C 95 % 1006,1 hPa 0,2 l/m 0 min 2 min 0 W/m 9,7 km/h (2 Bft) 97,87 %
05.04.2022 20:56 10,7 C 9,4 C 7,2 C 95 % 1006,2 hPa 0,4 l/m 0 min 2 min 0 W/m 6,4 km/h (2 Bft) 97,87 %
05.04.2022 20:58 10,6 C 9,4 C 7,2 C 95 % 1006,1 hPa 0,2 l/m 0 min 2 min 0 W/m 12,9 km/h (3 Bft) 97,87 %
05.04.2022 21:00 10,6 C 9,4 C 7,2 C 96 % 1006,2 hPa 0,2 l/m 0 min 2 min 0 W/m 6,4 km/h (2 Bft) 97,87 %
05.04.2022 21:02 10,6 C 9,4 C 7,2 C 95 % 1006,2 hPa 0,0 l/m 0 min 2 min 0 W/m 6,4 km/h (2 Bft) 97,83 %
05.04.2022 21:04 10,6 C 9,4 C 7,2 C 96 % 1006,1 hPa 0,2 l/m 0 min 2 min 0 W/m 9,7 km/h (2 Bft) 97,87 %
05.04.2022 21:06 10,6 C 9,4 C 7,2 C 96 % 1006,1 hPa 0,2 l/m 0 min 2 min 0 W/m 6,4 km/h (2 Bft) 95,74 %
05.04.2022 21:08 10,6 C 9,4 C 7,2 C 96 % 1006,2 hPa 0,2 l/m 0 min 2 min 0 W/m 3,2 km/h (1 Bft) 95,74 %
05.04.2022 21:10 10,6 C 9,4 C 7,2 C 96 % 1006,2 hPa 0,0 l/m 0 min 2 min 0 W/m 6,4 km/h (2 Bft) 93,62 %
05.04.2022 21:12 10,6 C 9,4 C 7,2 C 96 % 1006,3 hPa 1,0 l/m 0 min 2 min 0 W/m 9,7 km/h (2 Bft) 97,87 %
05.04.2022 21:14 10,6 C 9,4 C 7,2 C 96 % 1006,4 hPa 0,8 l/m 0 min 2 min 0 W/m 16,1 km/h (3 Bft) 100,00 %
05.04.2022 21:16 10,5 C 9,4 C 7,2 C 96 % 1006,3 hPa 0,4 l/m 0 min 2 min 0 W/m 12,9 km/h (3 Bft) 100,00 %
05.04.2022 21:18 10,4 C 9,4 C 7,2 C 96 % 1006,3 hPa 0,4 l/m 0 min 2 min 0 W/m 6,4 km/h (2 Bft) 97,87 %
05.04.2022 21:20 10,4 C 9,4 C 7,2 C 96 % 1006,4 hPa 0,6 l/m 0 min 2 min 0 W/m 9,7 km/h (2 Bft) 97,87 %
05.04.2022 21:22 10,4 C 9,4 C 7,2 C 96 % 1006,5 hPa 0,4 l/m 0 min 2 min 0 W/m 12,9 km/h (3 Bft) 100,00 %
05.04.2022 21:24 10,3 C 8,9 C 7,2 C 96 % 1006,5 hPa 0,2 l/m 0 min 2 min 0 W/m 25,7 km/h (4 Bft) 100,00 %
05.04.2022 21:26 10,3 C 8,9 C 7,2 C 96 % 1006,5 hPa 0,2 l/m 0 min 2 min 0 W/m 12,9 km/h (3 Bft) 100,00 %
05.04.2022 21:28 10,2 C 8,9 C 7,2 C 96 % 1006,6 hPa 0,2 l/m 0 min 2 min 0 W/m 19,3 km/h (3 Bft) 97,87 %
05.04.2022 21:30 10,1 C 8,9 C 7,2 C 96 % 1006,5 hPa 0,2 l/m 0 min 2 min 0 W/m 16,1 km/h (3 Bft) 97,87 %
05.04.2022 21:32 10,1 C 8,9 C 6,7 C 96 % 1006,6 hPa 0,0 l/m 0 min 2 min 0 W/m 9,7 km/h (2 Bft) 100,00 %
05.04.2022 21:34 10,1 C 8,9 C 6,7 C 96 % 1006,6 hPa 0,2 l/m 0 min 2 min 0 W/m 19,3 km/h (3 Bft) 97,87 %
05.04.2022 21:36 10,0 C 8,9 C 6,7 C 96 % 1006,5 hPa 0,2 l/m 0 min 2 min 0 W/m 22,5 km/h (4 Bft) 100,00 %
05.04.2022 21:38 10,0 C 8,9 C 6,7 C 96 % 1006,5 hPa 0,0 l/m 0 min 2 min 0 W/m 19,3 km/h (3 Bft) 58,97 %
05.04.2022 21:40 9,9 C 8,9 C 6,7 C 97 % 1006,5 hPa 0,0 l/m 0 min 2 min 0 W/m 9,7 km/h (2 Bft) 87,50 %
05.04.2022 21:42 9,9 C 8,9 C 6,7 C 97 % 1006,5 hPa 0,0 l/m 0 min 0 min 0 W/m 19,3 km/h (3 Bft) 97,87 %
05.04.2022 21:44 9,9 C 8,9 C 6,7 C 97 % 1006,5 hPa 0,0 l/m 0 min 0 min 0 W/m 9,7 km/h (2 Bft) 97,87 %
05.04.2022 21:46 9,8 C 8,9 C 6,7 C 97 % 1006,4 hPa 0,0 l/m 0 min 0 min 0 W/m 16,1 km/h (3 Bft) 97,83 %
05.04.2022 21:48 9,8 C 8,9 C 6,7 C 97 % 1006,4 hPa 0,0 l/m 0 min 0 min 0 W/m 9,7 km/h (2 Bft) 97,87 %
05.04.2022 21:50 9,8 C 8,9 C 6,7 C 97 % 1006,5 hPa 0,0 l/m 0 min 0 min 0 W/m 12,9 km/h (3 Bft) 97,87 %
05.04.2022 21:52 9,8 C 8,9 C 6,7 C 97 % 1006,4 hPa 0,0 l/m 0 min 0 min 0 W/m 6,4 km/h (2 Bft) 100,00 %
05.04.2022 21:54 9,8 C 8,9 C 6,7 C 97 % 1006,4 hPa 0,0 l/m 0 min 0 min 0 W/m 6,4 km/h (2 Bft) 95,74 %
05.04.2022 21:56 9,8 C 8,9 C 6,7 C 97 % 1006,4 hPa 0,0 l/m 0 min 0 min 0 W/m 6,4 km/h (2 Bft) 95,74 %
05.04.2022 21:58 9,8 C 8,9 C 6,7 C 97 % 1006,4 hPa 0,0 l/m 0 min 0 min 0 W/m 9,7 km/h (2 Bft) 97,83 %
05.04.2022 22:00 9,8 C 8,9 C 6,7 C 97 % 1006,4 hPa 0,0 l/m 0 min 0 min 0 W/m 6,4 km/h (2 Bft) 97,87 %
05.04.2022 22:02 9,8 C 8,9 C 6,7 C 97 % 1006,4 hPa 0,0 l/m 0 min 0 min 0 W/m 6,4 km/h (2 Bft) 97,87 %
05.04.2022 22:04 9,8 C 8,9 C 6,7 C 97 % 1006,4 hPa 0,0 l/m 0 min 0 min 0 W/m 6,4 km/h (2 Bft) 97,14 %
05.04.2022 22:06 9,8 C 8,9 C 6,7 C 97 % 1006,5 hPa 0,0 l/m 0 min 0 min 0 W/m 6,4 km/h (2 Bft) 97,87 %
05.04.2022 22:08 9,8 C 8,9 C 6,7 C 97 % 1006,5 hPa 0,0 l/m 0 min 0 min 0 W/m 12,9 km/h (3 Bft) 97,87 %
05.04.2022 22:10 9,8 C 8,9 C 6,7 C 97 % 1006,4 hPa 0,0 l/m 0 min 0 min 0 W/m 6,4 km/h (2 Bft) 100,00 %
05.04.2022 22:12 9,8 C 8,9 C 6,7 C 97 % 1006,5 hPa 0,0 l/m 0 min 0 min 0 W/m 3,2 km/h (1 Bft) 100,00 %
05.04.2022 22:14 9,8 C 8,9 C 6,7 C 97 % 1006,5 hPa 0,0 l/m 0 min 0 min 0 W/m 6,4 km/h (2 Bft) 100,00 %
05.04.2022 22:16 9,8 C 8,9 C 6,7 C 97 % 1006,5 hPa 0,0 l/m 0 min 0 min 0 W/m 3,2 km/h (1 Bft) 97,87 %
05.04.2022 22:18 9,8 C 8,9 C 6,7 C 97 % 1006,5 hPa 0,0 l/m 0 min 0 min 0 W/m 3,2 km/h (1 Bft) 98,18 %
05.04.2022 22:20 9,8 C 8,9 C 6,7 C 97 % 1006,5 hPa 0,0 l/m 0 min 0 min 0 W/m 6,4 km/h (2 Bft) 97,87 %
05.04.2022 22:22 9,8 C 8,9 C 6,7 C 97 % 1006,5 hPa 0,0 l/m 0 min 0 min 0 W/m 6,4 km/h (2 Bft) 100,00 %
05.04.2022 22:24 9,8 C 8,9 C 6,7 C 97 % 1006,5 hPa 0,0 l/m 0 min 0 min 0 W/m 22,5 km/h (4 Bft) 95,74 %
05.04.2022 22:26 9,8 C 9,4 C 6,7 C 97 % 1006,5 hPa 0,0 l/m 0 min 0 min 0 W/m 6,4 km/h (2 Bft) 97,87 %
05.04.2022 22:28 9,8 C 9,4 C 6,7 C 97 % 1006,5 hPa 0,0 l/m 0 min 0 min 0 W/m 9,7 km/h (2 Bft) 100,00 %
05.04.2022 22:30 9,8 C 9,4 C 6,7 C 97 % 1006,5 hPa 0,0 l/m 0 min 0 min 0 W/m 9,7 km/h (2 Bft) 100,00 %
05.04.2022 22:32 9,8 C 9,4 C 6,7 C 97 % 1006,5 hPa 0,0 l/m 0 min 0 min 0 W/m 16,1 km/h (3 Bft) 97,87 %
05.04.2022 22:34 9,8 C 9,4 C 6,7 C 97 % 1006,4 hPa 0,0 l/m 0 min 0 min 0 W/m 12,9 km/h (3 Bft) 97,83 %
05.04.2022 22:36 9,8 C 9,4 C 6,7 C 97 % 1006,4 hPa 0,0 l/m 0 min 0 min 0 W/m 6,4 km/h (2 Bft) 97,87 %
05.04.2022 22:38 9,8 C 9,4 C 6,7 C 97 % 1006,4 hPa 0,0 l/m 0 min 0 min 0 W/m 12,9 km/h (3 Bft) 95,83 %
05.04.2022 22:40 9,8 C 9,4 C 6,7 C 97 % 1006,4 hPa 0,0 l/m 0 min 0 min 0 W/m 12,9 km/h (3 Bft) 97,87 %
05.04.2022 22:42 9,8 C 9,4 C 6,7 C 97 % 1006,5 hPa 0,0 l/m 0 min 0 min 0 W/m 12,9 km/h (3 Bft) 97,14 %
05.04.2022 22:44 9,9 C 9,4 C 6,7 C 97 % 1006,5 hPa 0,0 l/m 0 min 0 min 0 W/m 9,7 km/h (2 Bft) 95,74 %
05.04.2022 22:46 9,9 C 9,4 C 6,7 C 96 % 1006,5 hPa 0,0 l/m 0 min 0 min 0 W/m 9,7 km/h (2 Bft) 95,74 %
05.04.2022 22:48 9,9 C 9,4 C 6,7 C 96 % 1006,5 hPa 0,0 l/m 0 min 0 min 0 W/m 12,9 km/h (3 Bft) 97,83 %
05.04.2022 22:50 9,9 C 9,4 C 6,7 C 96 % 1006,5 hPa 0,0 l/m 0 min 0 min 0 W/m 12,9 km/h (3 Bft) 97,87 %
05.04.2022 22:52 9,9 C 9,4 C 6,7 C 96 % 1006,5 hPa 0,0 l/m 0 min 0 min 0 W/m 12,9 km/h (3 Bft) 95,74 %
05.04.2022 22:54 9,9 C 9,4 C 6,7 C 96 % 1006,5 hPa 0,0 l/m 0 min 0 min 0 W/m 16,1 km/h (3 Bft) 98,18 %
05.04.2022 22:56 9,9 C 9,4 C 6,7 C 96 % 1006,5 hPa 0,0 l/m 0 min 0 min 0 W/m 12,9 km/h (3 Bft) 97,87 %
05.04.2022 22:58 9,9 C 9,4 C 6,7 C 96 % 1006,5 hPa 0,0 l/m 0 min 0 min 0 W/m 19,3 km/h (3 Bft) 97,83 %
05.04.2022 23:00 9,9 C 8,9 C 6,7 C 96 % 1006,5 hPa 0,0 l/m 0 min 0 min 0 W/m 6,4 km/h (2 Bft) 97,87 %
05.04.2022 23:02 9,8 C 8,9 C 6,7 C 95 % 1006,4 hPa 0,0 l/m 0 min 2 min 0 W/m 19,3 km/h (3 Bft) 97,87 %
05.04.2022 23:04 9,9 C 8,9 C 6,7 C 95 % 1006,4 hPa 0,0 l/m 0 min 2 min 0 W/m 16,1 km/h (3 Bft) 92,86 %
05.04.2022 23:06 9,8 C 8,9 C 6,7 C 95 % 1006,5 hPa 0,0 l/m 0 min 2 min 0 W/m 6,4 km/h (2 Bft) 58,18 %
05.04.2022 23:08 9,8 C 8,9 C 6,7 C 95 % 1006,4 hPa 0,2 l/m 0 min 2 min 0 W/m 12,9 km/h (3 Bft) 96,00 %
05.04.2022 23:10 9,8 C 8,9 C 6,7 C 95 % 1006,4 hPa 0,0 l/m 0 min 0 min 0 W/m 12,9 km/h (3 Bft) 94,44 %
05.04.2022 23:12 9,8 C 8,9 C 6,7 C 95 % 1006,5 hPa 0,0 l/m 0 min 0 min 0 W/m 16,1 km/h (3 Bft) 93,48 %
05.04.2022 23:14 9,8 C 8,9 C 6,7 C 95 % 1006,4 hPa 0,0 l/m 0 min 0 min 0 W/m 6,4 km/h (2 Bft) 89,36 %
05.04.2022 23:16 9,7 C 8,9 C 6,7 C 95 % 1006,4 hPa 0,0 l/m 0 min 0 min 0 W/m 6,4 km/h (2 Bft) 65,96 %
05.04.2022 23:18 9,7 C 8,9 C 6,7 C 95 % 1006,4 hPa 0,0 l/m 0 min 0 min 0 W/m 16,1 km/h (3 Bft) 78,72 %
05.04.2022 23:20 9,7 C 8,9 C 6,7 C 95 % 1006,4 hPa 0,0 l/m 0 min 0 min 0 W/m 6,4 km/h (2 Bft) 89,36 %
05.04.2022 23:22 9,7 C 8,9 C 6,7 C 95 % 1006,4 hPa 0,0 l/m 0 min 0 min 0 W/m 12,9 km/h (3 Bft) 47,50 %
05.04.2022 23:24 9,7 C 8,9 C 6,7 C 95 % 1006,4 hPa 0,0 l/m 0 min 0 min 0 W/m 6,4 km/h (2 Bft) 96,36 %
05.04.2022 23:26 9,7 C 8,9 C 6,7 C 96 % 1006,4 hPa 0,0 l/m 0 min 0 min 0 W/m 6,4 km/h (2 Bft) 93,62 %
05.04.2022 23:28 9,6 C 8,9 C 6,7 C 96 % 1006,4 hPa 0,0 l/m 0 min 0 min 0 W/m 6,4 km/h (2 Bft) 97,87 %
05.04.2022 23:30 9,6 C 8,3 C 6,7 C 96 % 1006,4 hPa 0,0 l/m 0 min 0 min 0 W/m 6,4 km/h (2 Bft) 93,62 %
05.04.2022 23:32 9,6 C 8,3 C 6,7 C 96 % 1006,5 hPa 0,0 l/m 0 min 0 min 0 W/m 16,1 km/h (3 Bft) 95,92 %
05.04.2022 23:34 9,6 C 8,3 C 6,7 C 96 % 1006,4 hPa 0,0 l/m 0 min 0 min 0 W/m 6,4 km/h (2 Bft) 88,89 %
05.04.2022 23:36 9,6 C 8,3 C 6,7 C 96 % 1006,4 hPa 0,0 l/m 0 min 2 min 0 W/m 6,4 km/h (2 Bft) 91,49 %
05.04.2022 23:38 9,6 C 8,3 C 6,7 C 96 % 1006,4 hPa 0,2 l/m 0 min 2 min 0 W/m 3,2 km/h (1 Bft) 93,62 %
05.04.2022 23:40 9,6 C 8,3 C 6,7 C 96 % 1006,4 hPa 0,0 l/m 0 min 2 min 0 W/m 6,4 km/h (2 Bft) 89,36 %
05.04.2022 23:42 9,6 C 8,3 C 6,7 C 96 % 1006,4 hPa 0,0 l/m 0 min 0 min 0 W/m 3,2 km/h (1 Bft) 87,23 %
05.04.2022 23:44 9,6 C 8,3 C 6,7 C 96 % 1006,4 hPa 0,0 l/m 0 min 0 min 0 W/m 6,4 km/h (2 Bft) 66,67 %
05.04.2022 23:46 9,5 C 8,3 C 6,7 C 96 % 1006,3 hPa 0,0 l/m 0 min 0 min 0 W/m 9,7 km/h (2 Bft) 95,74 %
05.04.2022 23:48 9,5 C 8,3 C 6,7 C 96 % 1006,3 hPa 0,0 l/m 0 min 0 min 0 W/m 6,4 km/h (2 Bft) 95,74 %
05.04.2022 23:50 9,5 C 8,3 C 6,7 C 96 % 1006,3 hPa 0,0 l/m 0 min 0 min 0 W/m 6,4 km/h (2 Bft) 96,00 %
05.04.2022 23:52 9,4 C 8,3 C 6,7 C 96 % 1006,3 hPa 0,0 l/m 0 min 0 min 0 W/m 6,4 km/h (2 Bft) 91,49 %
05.04.2022 23:54 9,4 C 8,3 C 6,7 C 96 % 1006,3 hPa 0,0 l/m 0 min 0 min 0 W/m 6,4 km/h (2 Bft) 97,22 %
05.04.2022 23:56 9,4 C 8,3 C 6,7 C 96 % 1006,2 hPa 0,0 l/m 0 min 0 min 0 W/m 9,7 km/h (2 Bft) 95,74 %
05.04.2022 23:58 9,4 C 8,3 C 6,7 C 96 % 1006,1 hPa 0,0 l/m 0 min 0 min 0 W/m 6,4 km/h (2 Bft) 93,48 %
_ Min-Zeit 00:00 00:00 00:00 16:52 02:16 - - - - 11:58 17:28
Minimum _ 7,2 C 6,7 C 3,9 C 90 % 1005,1 hPa - - - - 3,2 km/h (1 Bft) 47,37 %
_ Max-Zeit 13:20 13:14 13:16 04:04 12:12 21:12 12:16 04:31 12:52 00:44 00:04
Maximum _ 12,5 C 13,9 C 10,0 C 99 % 1006,9 hPa 1,0 l/m 2 min 5 min 524 W/m 41,8 km/h
O-SO (6 Bft)
100,00 %
Durchschnitt _ 10,0 C 9,5 C 7,1 C 96 % 1006,1 hPa #18,0 l/m #56 min. #11:12 h 117 W/m 15,1 km/h (3 Bft) 96,60 %
© 2022 W. Hausmann